GFSCGP_sfc_temp_048.txt.gz
Temp
54 49 44 49 50 51 49 48 48 49 57 54 52 51 52 53 55 53 55 55 57 58 61 62 62 61 60 59 60 60 59 57 57 56 55 54 54 56 54 54 55 55 55 55
50 45 53 54 53 51 50 48 47 54 56 53 48 48 53 53 56 57 55 55 56 58 58 61 60 60 60 60 60 59 59 58 58 59 55 55 54 54 55 54 54 55 54 54
46 51 57 54 51 50 48 47 48 48 52 50 49 47 50 54 56 57 58 59 60 59 58 60 60 60 60 59 60 60 59 59 59 59 56 53 54 54 53 52 52 54 54 54
50 54 55 51 51 52 44 53 52 51 48 40 48 39 45 49 52 55 58 55 58 59 61 62 61 60 60 61 61 61 60 59 59 58 59 54 54 52 53 52 51 55 53 53
49 49 49 50 52 55 51 54 51 49 44 41 42 40 46 47 48 53 57 59 59 61 62 61 62 63 62 60 58 59 58 58 59 58 58 55 53 54 52 51 53 53 50 51
50 53 53 53 56 57 57 51 48 45 43 36 42 41 42 46 52 53 56 58 60 60 61 63 63 61 59 56 56 57 58 58 59 59 57 56 55 53 52 51 51 48 48 48
48 50 53 56 50 53 50 45 34 32 31 33 44 40 44 51 55 55 55 57 61 60 59 59 58 59 58 56 57 57 57 57 59 58 58 59 57 54 54 53 50 47 45 44
41 39 51 55 53 49 47 46 34 31 28 35 43 37 48 54 55 55 56 56 56 55 59 58 60 60 59 57 58 59 58 59 59 59 59 59 57 55 53 53 53 50 47 47
40 42 51 54 55 54 47 42 48 36 33 29 37 44 52 53 53 54 53 52 52 54 56 59 57 58 57 57 58 59 60 60 59 59 59 56 54 53 52 52 50 49 48 48
49 41 48 53 55 54 51 53 40 37 32 30 35 37 41 50 51 51 51 50 50 51 53 54 54 55 56 58 58 59 59 59 60 59 56 54 53 53 51 51 50 49 49 47
48 47 44 49 48 48 47 44 43 43 36 32 28 36 47 50 51 52 52 53 52 51 52 53 54 56 57 57 57 58 58 59 54 53 52 51 50 51 52 52 51 50 48 47
50 44 38 46 50 53 50 47 45 34 36 33 30 36 51 51 52 53 54 54 52 53 53 53 54 54 55 57 57 57 57 57 55 51 50 50 51 52 51 49 48 48 48 48
50 41 35 40 46 48 46 48 47 42 37 34 27 36 52 51 52 54 55 54 54 54 53 53 53 53 55 55 55 55 55 54 50 51 50 50 50 50 47 47 48 48 48 47
54 43 41 38 42 45 41 46 45 43 32 35 35 41 49 51 51 54 54 51 52 53 54 53 52 53 54 54 53 52 51 50 50 50 49 48 48 49 48 48 48 48 47 45
51 43 43 44 46 47 46 46 44 43 42 38 43 41 48 49 49 50 51 50 51 50 51 53 53 51 51 51 50 50 49 48 49 48 47 46 48 48 46 45 45 44 45 45
48 42 41 38 44 44 42 45 45 44 43 43 42 43 49 47 46 47 48 50 49 49 49 48 51 52 51 51 49 48 47 47 48 46 46 47 48 47 45 44 44 45 45 45
46 40 36 36 38 40 33 42 45 45 45 46 39 47 48 45 47 45 46 47 46 44 44 44 44 44 45 46 45 44 44 46 46 46 46 46 45 44 45 46 45 44 43 42
41 39 34 29 31 26 43 46 47 45 46 46 45 45 46 45 42 42 42 43 42 42 41 41 41 42 42 43 44 44 45 44 43 42 44 45 45 44 44 43 42 41 41 40
44 37 32 31 30 37 42 45 44 44 44 46 44 43 43 44 44 41 41 41 39 39 39 39 39 40 40 41 42 42 42 42 42 44 44 44 44 43 43 42 41 41 40 38
43 39 36 28 27 25 40 47 50 49 36 46 45 43 44 44 38 39 39 40 38 39 39 38 39 39 39 39 42 41 41 42 42 43 44 44 43 42 41 39 38 37 36 35
32 31 30 22 25 33 44 48 50 37 38 46 48 46 44 43 41 38 38 38 39 38 39 40 39 38 38 40 42 39 40 40 42 42 42 42 42 40 39 37 35 34 33 32
37 32 27 26 24 31 48 47 42 45 42 46 46 45 42 37 38 37 38 37 38 37 38 39 39 38 39 39 40 38 38 40 41 41 40 39 37 37 37 33 33 33 31 30
37 41 36 38 38 46 46 46 47 47 46 45 45 43 42 38 37 37 36 37 37 37 36 39 38 38 38 39 39 38 38 38 36 35 34 33 33 33 32 32 31 30 29 28
41 44 39 40 44 43 44 44 45 45 45 45 44 43 42 38 37 36 36 36 36 36 36 38 38 36 35 38 37 36 35 35 33 32 31 31 30 31 30 30 30 28 26 27
42 44 40 39 41 41 44 42 42 41 42 42 42 41 40 38 37 36 35 35 36 35 36 37 36 35 34 34 33 32 32 32 31 31 31 30 30 28 29 29 28 29 29 28
44 42 39 40 45 45 44 41 42 41 40 41 39 37 38 39 36 36 34 35 35 34 36 35 34 33 31 30 29 30 31 30 29 30 29 26 26 25 27 27 27 32 31 32

GFSCGP_sfc_temp_051.txt.gz
Temp
60 59 54 57 57 57 56 55 55 57 62 60 58 59 61 60 60 59 59 60 61 62 66 67 67 67 67 67 67 68 67 66 66 66 63 64 62 63 62 62 63 64 66 65
57 53 59 59 58 56 56 54 54 58 61 59 58 59 60 59 60 61 61 61 62 64 65 66 66 67 66 67 67 68 68 68 67 68 66 67 64 63 64 62 62 63 64 64
53 58 59 58 57 55 56 54 54 55 59 59 58 57 57 59 61 62 64 65 65 64 64 65 65 65 67 66 66 68 69 68 68 68 67 64 63 62 60 60 61 62 63 62
56 59 57 56 55 57 52 58 57 56 55 51 57 47 54 57 57 59 63 63 64 65 65 67 66 66 66 67 68 68 68 67 67 66 66 64 64 63 62 61 62 63 62 59
55 54 54 54 56 59 56 59 57 56 53 52 51 50 56 55 55 59 61 64 66 67 67 67 67 69 69 68 65 66 67 66 66 65 66 64 63 65 60 59 60 61 59 57
57 61 59 60 60 60 60 57 53 52 51 43 50 50 52 57 60 61 65 66 66 67 67 69 71 70 69 67 65 65 66 66 66 65 65 63 62 61 60 60 60 60 60 60
54 56 60 61 57 60 58 53 44 42 41 41 49 47 53 60 63 63 63 65 67 67 68 67 68 68 68 65 64 64 66 66 65 64 63 62 62 62 58 60 59 55 57 58
48 46 56 59 59 56 54 54 44 36 37 43 48 45 57 62 64 63 62 62 64 65 66 67 68 69 68 66 65 65 66 66 65 64 63 62 63 62 62 59 58 57 57 57
44 47 58 58 60 61 53 50 54 42 39 40 47 52 61 61 62 62 62 62 63 63 65 67 68 67 67 66 64 65 66 66 64 64 64 63 63 62 61 59 58 56 53 54
53 47 54 58 61 59 56 58 47 45 37 35 43 45 52 58 59 61 61 63 64 63 62 64 64 65 66 67 66 65 66 66 66 65 65 64 63 62 62 58 55 53 54 51
54 53 50 55 54 54 52 51 48 50 45 40 37 46 56 59 61 60 61 63 63 63 62 62 64 65 66 66 65 65 66 67 66 66 65 62 60 59 58 55 54 52 51 50
56 50 43 51 56 59 56 53 52 44 42 41 40 44 60 59 60 60 62 63 64 63 63 62 63 63 64 64 65 66 66 65 65 64 60 59 57 55 54 53 52 51 50 51
54 47 43 47 51 55 53 53 51 48 44 40 38 46 59 59 60 60 61 63 63 62 63 63 62 62 62 63 63 63 63 64 64 60 58 56 54 55 53 51 51 53 51 49
56 48 47 43 48 52 47 50 51 51 42 44 44 50 57 60 59 62 61 61 62 62 61 62 62 62 62 62 63 62 60 58 56 55 55 53 53 53 52 51 51 50 51 51
56 48 47 49 51 51 52 51 49 49 50 46 50 48 57 59 60 60 57 58 58 57 57 59 60 60 61 60 59 58 56 56 55 52 52 51 52 51 51 51 47 47 47 51
52 48 46 45 49 50 48 51 50 50 50 49 50 49 59 58 57 55 54 55 54 53 52 53 54 57 57 56 56 54 53 53 54 53 50 49 48 49 46 46 48 50 45 50
48 44 42 41 44 46 39 46 50 50 52 53 47 54 55 54 54 53 52 52 50 49 48 48 49 50 51 51 51 50 51 52 51 50 50 48 47 46 46 47 46 48 45 45
46 44 41 37 37 33 51 52 54 52 52 54 53 55 55 55 49 49 50 51 47 46 46 46 47 48 48 50 49 50 50 49 49 49 47 47 46 44 47 46 43 42 43 43
50 42 37 36 38 44 49 51 51 50 54 55 54 54 50 48 50 46 45 46 45 44 44 44 46 46 47 48 49 49 49 50 49 46 46 46 46 45 43 42 42 43 45 46
43 44 43 34 35 34 47 54 54 57 45 54 54 50 48 49 48 51 44 44 43 44 45 44 45 46 47 47 50 48 48 48 47 46 46 45 46 45 42 43 45 46 46 44
38 37 38 33 36 41 50 53 55 44 49 53 53 52 51 50 51 47 44 43 44 44 44 45 46 45 46 48 48 46 46 44 47 47 46 44 43 44 44 44 44 43 43 42
41 38 35 35 34 37 52 51 48 55 52 53 52 52 50 44 42 42 42 42 43 43 44 46 44 44 45 48 47 45 43 45 46 45 43 42 42 42 42 42 42 42 41 39
40 45 43 45 45 53 52 56 55 54 55 51 53 50 46 42 42 42 41 41 42 44 44 45 43 42 43 45 46 42 42 43 42 41 39 39 40 40 40 40 39 39 39 37
44 47 45 47 51 51 51 52 52 53 54 53 55 50 47 43 42 41 41 41 42 43 42 43 42 40 38 40 39 39 39 41 40 38 37 38 37 37 38 38 38 36 35 33
46 47 44 45 48 47 50 50 52 50 49 48 50 48 46 43 41 41 40 41 42 42 41 41 39 37 35 36 34 36 38 39 38 36 35 35 35 34 35 35 34 33 34 32
47 46 43 44 53 53 55 54 48 46 47 47 45 42 44 44 41 42 40 41 41 39 39 38 36 34 33 32 33 35 36 36 36 34 33 30 31 31 32 32 32 31 30 30

GFSCGP_sfc_temp_054.txt.gz
Temp
72 67 63 67 67 67 66 64 63 68 70 67 67 69 72 72 69 70 71 68 64 71 73 74 74 74 74 74 73 74 73 74 75 75 74 74 72 74 74 76 74 70 73 71
65 62 69 69 67 64 64 63 63 66 68 66 68 69 71 73 70 70 72 72 71 72 71 72 74 75 74 73 73 74 76 75 76 77 77 77 76 76 75 73 67 68 69 71
64 66 67 66 65 62 64 62 62 63 67 70 67 66 67 70 72 73 74 77 76 74 72 73 73 73 73 73 73 75 76 77 77 77 78 77 76 74 71 68 68 65 66 70
66 71 65 64 63 66 60 68 65 64 62 57 67 54 65 69 69 71 73 74 76 76 76 75 74 74 74 74 76 77 78 78 78 77 77 74 74 72 73 69 65 65 66 67
62 64 63 61 64 67 62 66 64 64 62 60 61 58 65 66 67 70 72 75 76 78 77 77 76 76 77 76 76 77 78 78 78 77 75 74 73 76 77 68 67 65 65 69
68 70 68 68 68 68 68 64 63 63 62 50 59 58 62 67 69 71 75 77 77 78 79 80 80 80 79 79 77 76 76 77 77 76 74 73 72 73 73 69 68 67 68 67
64 64 69 68 64 67 66 61 50 47 48 46 58 56 62 71 73 73 74 77 80 79 79 78 79 79 79 78 76 75 75 75 76 75 74 73 72 71 71 70 68 66 65 61
55 52 64 69 66 63 63 62 51 40 43 51 56 52 64 71 74 75 75 75 75 79 80 80 80 80 80 78 76 75 75 75 76 75 73 73 70 70 70 70 68 67 62 56
56 57 67 67 69 69 60 56 64 52 49 48 57 61 70 72 71 73 73 73 74 76 79 80 82 82 81 80 76 75 76 77 77 71 72 70 68 68 68 68 66 65 60 56
62 54 63 64 68 66 64 68 53 56 41 41 53 54 62 64 67 71 73 74 75 76 76 77 79 80 81 81 79 76 76 76 77 75 72 70 68 68 68 65 63 60 54 52
67 62 56 62 60 61 59 58 59 60 55 46 44 54 69 68 70 70 71 74 75 75 75 75 76 78 78 78 78 76 76 77 77 76 74 71 71 70 66 62 61 57 54 52
67 62 53 58 64 66 68 63 62 51 48 52 50 53 73 73 71 71 72 73 75 76 76 75 75 75 76 75 76 75 76 76 77 76 74 71 66 63 60 57 56 53 51 51
65 58 50 53 58 62 61 64 64 62 57 52 45 53 71 71 70 73 72 74 74 73 75 76 75 75 74 74 75 75 74 74 74 73 69 61 57 55 54 52 51 51 51 52
63 62 56 50 56 63 56 60 63 60 51 53 54 58 67 70 71 75 72 71 73 73 73 75 74 74 73 73 73 72 68 64 63 62 59 55 54 53 53 52 52 52 51 51
65 56 60 62 64 64 62 62 62 59 60 54 58 61 66 71 73 74 71 68 69 70 70 71 73 73 73 70 68 68 64 61 59 56 54 53 54 55 55 55 57 54 52 51
64 56 59 55 62 61 58 62 63 63 63 61 62 61 72 74 72 69 67 67 66 65 64 66 68 69 66 66 65 63 62 62 59 55 53 53 54 54 53 55 54 50 51 52
57 57 53 49 57 56 44 55 61 62 64 63 57 65 72 69 69 69 67 66 64 61 61 61 62 63 63 62 62 61 61 61 59 56 53 54 54 52 53 53 52 50 50 48
56 55 54 47 42 35 59 65 67 64 66 68 67 69 71 71 69 64 65 64 60 59 58 59 60 60 61 61 60 60 61 59 57 55 54 53 53 54 53 51 48 47 45 46
61 56 48 42 45 55 55 58 59 59 61 70 68 70 71 63 61 57 58 63 60 58 58 59 60 59 60 59 60 60 59 58 56 54 54 54 53 52 50 51 50 49 51 53
55 55 52 44 42 37 58 68 69 66 53 71 70 68 66 61 55 65 57 56 55 57 57 57 58 59 58 59 60 58 57 56 53 52 52 54 53 50 49 51 52 52 54 52
44 45 43 46 43 53 64 66 66 50 56 70 71 69 64 59 65 61 57 55 57 56 55 57 58 57 57 59 58 56 54 51 53 54 53 51 50 50 51 51 51 51 51 49
47 45 41 47 40 40 62 61 58 67 68 70 67 68 63 62 57 55 55 54 54 54 54 56 55 54 56 57 56 54 52 54 53 52 51 50 50 50 50 49 49 49 48 45
46 53 52 52 55 66 64 69 70 70 71 66 67 67 65 55 54 54 53 53 54 55 55 55 54 52 54 55 55 52 51 52 50 49 48 47 47 47 48 47 46 46 45 42
53 53 50 52 63 62 64 69 66 67 68 67 69 66 60 56 55 53 53 53 53 55 54 54 51 49 48 51 51 50 49 50 48 46 45 46 44 45 45 46 45 44 40 38
59 54 54 55 61 61 62 66 69 64 63 62 66 63 61 57 54 53 52 52 53 53 52 52 49 47 45 46 45 46 48 48 46 44 43 43 42 42 43 42 41 38 38 33
58 56 50 52 62 60 69 68 68 64 60 62 61 58 60 58 54 54 52 53 52 50 50 48 46 44 43 41 40 42 45 46 44 42 41 38 39 40 41 41 41 30 30 30

GFSCGP_sfc_temp_057.txt.gz
Temp
74 69 65 71 73 72 70 68 67 64 66 71 70 71 74 78 77 75 74 73 73 73 76 74 75 76 78 76 73 73 71 74 76 75 74 73 72 75 76 79 77 73 73 75
71 63 73 75 72 69 68 66 66 72 74 71 71 70 71 78 76 77 76 73 71 76 75 75 75 76 76 75 75 74 75 76 78 79 78 78 77 77 76 77 77 73 72 75
66 71 75 70 69 66 67 65 66 66 70 73 70 67 68 77 78 78 79 80 77 73 73 73 73 75 76 75 75 77 77 78 78 80 81 80 79 79 77 77 76 71 69 65
69 75 70 69 66 69 62 72 69 67 65 58 68 55 64 73 74 75 78 79 79 78 77 76 75 76 76 75 77 77 78 79 80 80 79 78 76 75 76 76 76 70 64 62
65 69 67 65 67 72 66 70 68 68 65 64 64 60 64 73 71 75 77 79 81 81 80 78 77 78 79 78 77 77 79 80 81 81 79 78 75 77 79 77 75 69 66 65
70 78 74 72 73 72 74 68 67 67 64 52 63 60 58 63 71 75 79 80 81 83 82 82 82 81 81 80 79 78 78 79 81 80 79 77 76 75 76 77 69 67 67 66
66 68 73 74 67 71 69 64 51 46 49 49 64 61 64 68 77 77 77 81 82 83 82 82 82 81 81 79 79 79 79 79 80 79 79 78 76 75 74 70 71 69 67 67
57 54 68 73 69 66 65 64 52 40 44 51 62 54 65 77 78 80 81 82 82 84 84 84 84 83 82 81 80 79 79 79 80 79 77 75 76 75 74 74 74 72 70 66
59 59 74 74 74 72 65 59 69 56 56 50 59 65 73 76 75 77 78 79 80 82 85 84 85 85 84 83 81 80 80 80 80 78 76 70 71 74 72 72 70 69 68 65
67 57 69 70 73 73 68 71 56 58 41 41 55 59 60 68 71 74 76 77 79 81 83 84 86 85 86 85 84 81 80 79 79 76 75 74 72 70 70 68 66 65 64 63
71 63 61 67 63 64 63 61 63 64 58 45 46 56 71 71 73 73 75 78 79 80 81 82 83 86 87 87 85 82 80 81 80 79 75 70 68 69 69 64 64 63 61 57
70 64 56 59 71 74 68 65 64 53 52 56 53 55 75 75 77 76 77 78 80 80 81 82 82 82 83 83 83 82 80 80 81 81 76 70 68 64 63 61 59 57 55 53
69 61 51 56 63 68 64 67 67 65 62 51 43 54 75 76 75 77 77 79 79 80 80 81 79 79 80 80 80 80 79 79 81 80 64 63 60 57 56 53 52 52 51 51
66 63 57 51 58 65 59 64 67 64 53 54 56 61 69 73 74 77 78 79 80 79 80 81 80 79 79 78 78 77 73 74 74 67 62 57 55 54 53 52 52 51 52 51
66 57 61 63 66 67 65 64 64 62 63 55 60 62 69 73 75 77 79 79 78 78 79 80 80 79 77 76 75 68 64 62 61 58 56 53 54 55 55 55 53 52 51 50
68 57 61 58 65 65 61 66 66 67 66 65 66 64 76 78 79 77 76 76 75 76 77 78 79 77 74 72 71 67 62 60 59 56 55 56 57 59 58 57 56 55 53 53
62 59 56 50 62 61 52 61 64 66 69 67 60 68 75 74 75 75 77 75 75 73 72 73 74 72 70 69 68 66 63 62 60 59 59 60 60 57 57 58 57 56 53 53
58 58 57 49 45 38 59 71 70 66 68 72 71 73 75 76 78 77 77 76 71 70 68 69 69 68 68 68 67 66 66 63 61 60 59 59 58 57 57 56 55 53 53 52
62 57 50 44 46 55 62 65 65 64 64 73 72 74 76 77 72 67 71 74 70 68 68 68 68 67 67 66 66 65 63 62 60 59 59 58 56 54 55 53 53 53 51 52
59 59 51 48 43 39 57 69 75 73 56 74 75 73 73 71 59 69 68 69 67 67 67 66 66 66 65 65 65 63 61 60 59 58 57 56 57 56 54 53 54 55 55 54
45 48 44 46 45 54 68 71 76 52 56 75 76 75 73 68 70 70 67 64 66 65 65 65 65 64 64 65 64 61 59 56 57 58 57 55 55 55 55 54 54 54 53 52
45 44 42 47 44 41 68 68 60 68 74 75 75 76 73 72 66 64 63 63 63 63 62 64 62 62 63 64 62 58 57 58 58 56 55 55 54 54 54 53 52 52 50 48
48 55 51 55 55 67 68 68 74 77 75 75 75 77 75 67 64 63 62 62 62 62 63 63 61 59 61 62 61 57 56 57 55 54 52 52 52 52 52 51 49 50 48 44
60 63 56 57 64 67 70 72 72 75 75 77 77 76 73 66 64 62 61 61 61 62 62 62 59 58 57 59 59 56 55 55 53 51 50 50 50 48 49 50 48 46 42 40
59 61 58 59 65 67 70 68 69 73 74 73 73 75 72 67 63 62 60 60 62 62 61 59 57 55 55 55 54 55 54 54 51 49 49 47 46 47 46 45 43 41 37 34
62 60 54 53 64 62 64 71 71 73 72 70 70 70 70 68 63 62 60 61 61 59 58 57 55 52 51 51 50 52 53 52 49 46 45 43 42 43 45 45 39 31 31 30

GFSCGP_sfc_temp_063.txt.gz
Temp
61 53 50 54 57 61 60 59 55 55 63 59 57 56 54 56 55 55 56 58 60 60 61 61 59 58 56 56 57 57 57 58 59 58 57 58 58 59 61 62 65 65 65 65
56 51 61 65 64 62 62 57 54 59 64 61 58 55 61 57 57 59 61 60 61 61 60 60 60 58 57 57 58 58 58 58 59 60 61 61 61 62 64 63 63 64 65 65
53 59 66 64 62 60 60 57 55 57 61 64 55 53 56 61 63 63 66 65 65 62 61 59 61 60 58 57 58 60 60 60 61 62 62 62 63 62 62 63 63 63 64 65
57 65 63 63 60 62 53 64 64 61 55 45 56 41 56 60 62 64 66 64 64 63 65 63 62 60 58 59 61 62 63 63 63 65 63 62 62 62 63 61 62 62 64 63
55 59 59 58 62 65 58 65 62 60 52 48 51 43 50 62 58 61 64 66 64 65 64 65 64 63 62 63 63 64 64 64 65 65 65 65 64 64 65 64 62 61 62 62
60 68 65 63 69 67 68 63 60 57 51 39 50 46 45 53 60 64 66 66 66 65 65 66 67 67 64 64 65 65 65 65 66 66 66 65 66 64 63 63 62 62 62 62
58 60 66 69 61 64 61 53 39 34 35 34 54 50 53 59 64 65 65 64 62 65 67 65 65 66 67 64 64 65 65 65 66 67 67 67 66 67 65 61 61 60 59 59
47 44 60 66 63 57 57 54 39 33 30 36 54 43 53 63 66 68 70 68 65 67 69 67 67 67 67 68 66 66 66 66 68 68 69 70 69 66 64 63 61 62 61 60
47 49 64 66 67 64 57 50 58 46 44 35 44 54 60 62 64 65 68 68 67 68 69 69 68 69 68 69 68 67 67 68 70 69 68 68 66 65 64 63 61 60 60 59
54 46 61 64 67 64 61 62 46 46 35 32 43 45 46 57 64 66 63 63 66 68 70 71 70 69 71 71 70 68 69 69 70 70 68 68 66 66 65 60 59 60 59 59
60 52 51 62 57 56 54 53 52 52 48 34 32 39 53 56 63 64 62 66 65 65 67 68 73 72 72 73 71 68 68 69 70 70 70 68 65 63 60 61 61 59 57 57
60 53 46 52 63 67 62 57 54 39 42 44 38 40 62 60 62 65 65 67 66 68 68 68 67 71 73 73 73 71 70 70 69 70 68 64 61 60 59 59 58 57 55 54
59 52 40 45 55 60 57 57 58 56 50 42 35 40 63 64 66 66 64 64 67 67 66 67 68 67 68 71 72 72 68 66 63 62 61 59 57 55 54 52 53 52 52 50
61 51 48 41 46 55 50 56 58 55 40 43 42 48 59 61 62 63 66 65 65 67 68 66 66 66 66 62 60 62 64 64 62 58 57 54 53 51 50 51 50 50 49 48
59 50 52 53 57 59 57 56 57 55 54 46 49 50 56 60 64 64 67 67 66 66 66 67 65 64 59 58 57 56 55 55 55 54 52 50 50 51 50 49 48 48 48 47
58 46 51 48 55 57 54 58 55 57 57 54 53 52 64 65 66 66 68 67 67 67 67 67 68 66 61 57 54 54 53 52 53 52 50 51 50 49 49 48 48 48 47 47
47 46 44 41 52 52 41 50 55 57 60 57 49 57 62 64 65 66 64 66 66 67 67 65 66 64 60 56 55 52 52 52 52 52 52 52 52 50 49 49 49 48 46 45
44 47 43 34 41 33 50 61 61 58 61 62 62 62 64 66 64 63 65 65 64 65 65 62 63 60 58 56 53 53 54 54 54 54 54 53 52 51 50 50 46 44 43 41
46 45 35 35 38 45 52 57 57 55 54 63 61 62 64 64 59 57 65 64 62 62 59 57 59 59 56 55 55 54 53 55 55 53 52 52 51 48 47 46 47 47 46 43
44 45 37 33 30 32 45 58 64 63 46 62 61 61 61 60 49 53 61 61 59 59 60 59 59 58 56 55 56 53 52 52 51 51 51 50 50 49 49 48 48 46 44 44
34 36 33 33 32 37 53 62 63 44 44 62 62 61 60 56 56 59 59 58 59 58 58 58 58 56 56 57 55 52 52 50 52 51 51 50 50 50 50 45 43 42 41 39
37 33 32 34 30 30 56 58 51 54 59 62 61 60 57 58 57 59 59 58 58 57 57 57 55 54 55 56 55 52 50 52 52 51 50 49 49 49 47 42 41 41 38 34
35 41 37 41 38 52 55 55 59 60 60 60 60 63 60 55 56 58 56 56 56 55 54 55 54 52 53 55 55 50 50 51 50 48 47 46 46 46 44 41 38 37 35 31
49 53 45 44 49 53 56 58 58 57 58 61 66 62 61 59 58 55 54 54 54 54 53 53 52 51 50 52 53 51 50 50 48 45 44 42 41 40 39 40 38 35 30 28
47 52 48 45 52 55 57 59 58 57 59 62 64 63 62 57 56 57 55 53 55 54 54 53 52 50 49 51 49 50 50 48 45 44 42 41 39 36 33 32 32 29 27 29
50 47 41 39 51 52 55 61 61 58 60 62 59 61 62 59 57 56 53 53 53 53 51 51 49 48 47 48 46 46 48 47 44 40 39 34 34 33 33 31 29 31 30 32

GFSCGP_sfc_temp_066.txt.gz
Temp
58 50 49 50 52 55 54 51 49 55 60 56 54 52 53 54 53 55 55 53 54 54 56 56 56 55 56 57 57 58 58 57 57 57 58 59 60 59 60 59 61 61 62 63
53 49 58 58 57 55 54 53 52 56 62 58 56 53 55 54 55 56 57 54 54 55 55 56 54 54 53 54 55 55 56 56 59 60 60 60 58 56 58 59 59 61 62 62
50 55 62 59 56 54 55 52 53 53 57 56 52 49 50 56 56 58 59 59 59 56 54 55 54 53 52 53 54 55 56 56 58 59 59 57 56 57 57 60 61 59 61 63
52 62 59 56 55 56 49 60 59 57 50 43 52 39 49 54 56 58 59 58 60 58 58 57 55 53 53 54 57 57 57 57 59 59 59 58 58 58 61 63 63 59 60 61
51 55 55 54 56 60 55 62 59 58 51 45 47 41 47 54 54 56 58 60 61 60 59 57 57 56 56 57 56 58 58 58 60 59 60 59 59 61 61 61 59 59 59 62
57 64 59 59 63 62 64 58 56 53 47 37 47 44 42 49 57 59 61 62 61 61 61 61 61 60 57 58 58 59 59 59 60 61 60 59 59 59 60 60 59 60 60 60
55 56 61 63 56 60 58 50 37 35 34 34 50 45 46 56 61 62 61 63 64 62 62 60 59 58 58 57 58 59 60 60 61 61 61 61 61 61 60 60 60 59 59 59
45 41 56 61 58 54 52 51 37 33 29 36 48 41 49 61 62 63 66 66 65 63 64 62 61 60 60 59 60 61 61 61 62 62 62 62 63 62 62 61 61 59 60 61
44 45 59 62 63 61 53 46 56 43 40 33 41 49 57 60 59 59 60 65 63 62 63 63 64 62 62 61 61 61 62 63 63 63 63 63 62 62 64 63 59 59 59 58
52 43 57 61 61 62 59 59 44 42 34 31 39 41 44 54 57 60 59 60 62 62 64 65 65 65 65 64 63 62 64 64 65 65 65 65 64 63 61 58 58 59 59 59
56 49 48 56 54 52 52 48 48 48 43 33 30 38 51 55 61 60 59 61 60 61 64 66 66 67 67 68 65 63 63 64 65 65 65 65 64 62 60 59 59 58 58 59
56 50 43 49 58 62 59 54 51 39 39 39 35 41 57 57 59 60 60 63 62 64 66 67 68 68 67 67 67 66 64 63 64 64 63 61 59 60 60 60 59 58 58 56
53 46 38 43 51 58 52 54 56 50 45 40 32 40 59 58 59 61 60 61 62 64 62 62 63 68 68 68 68 68 64 63 65 63 62 60 60 60 59 58 58 58 55 53
52 49 46 40 45 50 47 52 57 53 36 40 39 47 54 57 59 61 61 61 61 63 64 62 60 60 60 66 68 65 63 64 64 61 60 59 61 61 61 55 53 52 52 50
50 43 49 52 54 55 53 52 54 50 49 42 46 47 53 57 60 61 63 63 62 62 62 63 59 56 55 55 56 63 63 63 61 58 57 54 53 53 53 51 51 50 49 49
49 40 46 45 52 55 52 55 53 52 52 51 52 50 61 64 62 60 63 66 64 64 64 63 61 57 55 54 55 55 58 56 56 53 51 51 51 51 50 49 48 48 47 47
43 40 38 37 47 50 40 49 51 52 54 53 45 52 62 62 60 60 65 65 63 64 63 61 62 58 56 54 53 53 54 54 53 52 51 51 50 49 48 48 48 47 45 45
42 40 38 31 37 32 49 58 56 54 57 60 58 58 62 63 65 63 66 65 64 63 62 62 63 59 55 53 52 51 53 53 52 51 51 51 49 49 49 48 46 45 45 43
47 40 32 31 34 42 48 53 54 53 50 58 59 60 63 63 58 56 63 63 65 61 59 60 62 56 53 52 52 51 50 51 51 51 50 51 50 48 47 46 45 44 43 41
43 42 36 32 29 31 43 54 60 59 41 58 61 60 61 58 46 51 61 60 59 58 55 54 53 52 51 51 52 51 50 50 50 50 51 51 49 47 46 45 43 43 43 42
33 32 32 32 32 35 47 54 59 43 44 56 60 60 60 53 56 59 58 57 57 57 55 54 54 53 52 52 52 50 49 49 50 50 50 48 48 47 46 46 43 41 39 38
33 32 31 32 31 28 53 55 47 49 54 57 57 57 55 58 55 56 58 56 55 55 53 54 52 51 52 52 51 48 47 49 49 49 48 47 47 48 48 42 39 39 36 33
34 41 36 38 38 51 53 54 53 55 53 55 54 57 56 54 54 55 54 54 55 55 53 53 51 49 50 51 51 48 47 49 48 47 45 43 43 42 42 39 37 35 34 32
44 49 42 42 49 50 53 58 59 57 57 59 58 57 56 56 56 54 53 53 52 52 52 50 50 49 47 49 49 48 48 48 46 42 41 41 39 37 37 37 36 33 30 31
47 49 48 43 49 52 54 54 57 59 60 58 60 57 58 57 56 54 53 53 54 52 51 52 50 49 47 48 47 47 47 46 43 41 39 37 35 34 32 30 30 30 29 30
46 45 39 38 49 49 51 57 60 56 58 60 58 56 56 57 57 55 52 53 53 51 49 48 47 46 45 45 44 44 45 44 40 37 35 31 30 31 31 29 28 32 31 32

GFSCGP_sfc_temp_069.txt.gz
Temp
55 48 44 50 50 52 50 47 44 51 57 53 51 52 55 52 50 51 51 50 51 52 53 53 52 55 57 58 57 57 57 58 59 59 58 58 57 59 59 61 62 61 62 62
50 47 54 56 54 52 50 46 46 52 57 53 51 51 54 52 52 53 53 51 51 51 51 52 51 52 54 56 57 57 58 58 61 60 61 61 61 59 59 60 61 61 61 60
47 52 59 55 53 51 49 46 47 48 54 53 49 48 52 53 54 54 57 55 53 53 51 52 52 52 52 55 56 55 57 56 57 56 60 59 59 59 59 59 59 58 59 60
49 59 55 52 52 52 46 54 54 52 47 41 50 37 47 51 51 53 55 54 54 54 55 53 52 51 52 52 53 53 54 54 55 55 54 56 58 59 59 57 58 58 58 59
48 52 52 51 53 55 51 56 54 52 47 42 43 39 44 50 50 53 55 57 56 56 56 54 53 52 52 52 52 53 55 55 56 55 55 54 53 56 56 56 56 56 56 58
53 59 56 55 59 57 60 54 52 48 44 35 44 42 40 46 54 56 59 59 59 58 58 57 56 55 53 52 53 54 54 55 57 56 55 55 55 55 56 55 56 58 56 57
50 52 56 59 53 56 53 46 35 32 32 35 46 41 44 53 56 61 60 59 60 61 58 57 55 54 53 52 52 54 55 55 56 57 57 56 56 56 56 58 57 59 59 56
41 37 53 58 55 51 49 48 35 32 29 35 44 38 47 57 60 61 62 63 63 60 59 58 57 57 56 54 54 55 55 55 57 57 57 58 58 58 58 57 58 57 58 59
40 41 56 59 59 57 50 43 53 41 37 32 39 46 54 58 58 59 57 59 59 60 60 59 60 59 58 56 55 56 57 57 58 57 58 58 58 58 59 58 59 59 57 58
49 40 53 57 57 57 54 56 42 39 31 30 36 38 41 52 55 59 55 55 58 61 61 62 61 60 60 59 58 57 58 59 59 60 59 59 59 59 59 59 56 57 57 59
54 45 44 52 48 48 48 49 46 46 39 32 29 35 48 52 55 57 56 56 58 60 61 62 63 63 62 62 59 58 59 60 61 61 60 59 59 59 59 60 59 57 58 58
52 46 41 47 55 57 55 51 49 37 37 37 34 41 54 55 56 57 58 61 58 61 62 62 63 64 62 61 60 59 59 60 61 62 62 60 60 60 60 60 58 59 59 59
51 42 37 41 47 53 49 51 52 47 42 39 34 38 56 56 57 57 57 58 60 58 57 61 64 62 63 63 63 61 60 59 61 62 62 61 61 61 61 60 60 60 59 58
50 44 39 35 41 48 45 51 53 51 37 38 41 45 51 55 55 58 58 59 59 60 60 58 58 62 63 64 64 63 61 61 61 61 61 61 60 60 61 60 59 59 56 54
47 37 42 43 47 50 51 51 52 50 48 41 47 44 50 55 57 59 59 58 59 59 59 59 59 58 62 63 63 64 63 61 61 61 61 61 60 61 60 58 56 53 52 51
47 38 38 37 47 49 47 52 52 50 50 50 50 46 55 59 57 57 59 61 60 61 60 61 60 57 56 57 59 61 61 60 61 60 60 59 55 55 55 53 51 51 50 48
43 39 36 31 40 41 37 46 51 53 52 51 44 50 57 55 57 57 60 60 61 61 63 59 61 59 57 55 56 58 59 58 59 58 54 54 53 52 50 50 49 48 47 46
38 37 36 32 35 28 43 53 56 52 55 54 53 55 58 58 60 62 59 60 60 61 61 60 62 58 55 52 55 54 55 55 54 53 52 51 51 50 49 48 47 45 45 44
44 37 32 28 31 38 44 50 49 48 50 56 54 56 59 58 53 55 60 58 62 62 65 63 65 57 51 52 53 54 53 53 52 51 50 50 50 48 47 46 45 45 45 44
43 41 35 32 28 26 42 50 56 56 41 55 62 58 53 54 44 49 60 58 58 58 56 54 52 52 51 50 52 52 51 51 51 51 50 50 49 48 46 46 44 44 44 43
33 33 32 31 30 33 45 51 54 37 39 54 57 54 57 53 53 59 56 58 55 53 53 52 52 52 51 50 50 50 50 50 51 52 51 49 49 48 47 45 44 43 42 38
31 31 28 32 30 25 50 48 41 46 50 50 53 52 52 53 55 55 56 55 54 53 52 52 51 49 49 50 50 48 48 49 50 50 48 48 47 47 46 42 41 40 37 32
32 36 32 34 36 47 50 48 50 51 51 53 53 54 53 54 55 53 52 52 53 50 50 51 49 48 48 50 50 47 44 47 46 47 46 46 46 44 43 40 37 35 33 33
39 44 39 38 45 48 52 54 56 56 55 57 57 55 53 51 53 53 53 53 52 50 48 48 48 47 45 46 47 46 46 46 45 44 43 42 40 38 39 38 37 32 31 31
40 43 42 43 49 50 52 54 55 56 57 57 57 58 57 53 54 52 53 53 52 50 49 49 48 46 45 46 45 46 46 45 41 41 40 38 36 34 31 32 33 31 32 33
39 38 34 34 43 41 51 55 55 54 55 56 55 55 58 55 55 54 55 52 51 49 48 46 45 44 44 44 44 44 46 44 40 35 36 34 33 32 32 31 29 32 32 32

GFSCGP_sfc_temp_075.txt.gz
Temp
56 52 48 52 55 56 55 51 52 55 58 57 58 57 63 65 59 60 61 61 60 60 62 61 59 61 59 59 59 59 58 58 58 58 59 58 58 58 59 59 61 62 63 63
52 47 55 56 55 55 54 51 52 56 58 57 58 58 64 64 64 65 65 61 61 58 57 57 57 59 59 58 59 58 58 59 61 60 65 60 58 59 59 59 60 61 61 61
50 53 57 55 52 51 52 50 52 52 55 58 55 55 60 65 61 62 62 64 64 61 56 54 54 56 59 57 57 59 58 59 61 61 59 57 57 57 57 58 59 61 62 62
52 59 54 53 52 54 47 55 54 53 51 46 55 45 55 62 64 62 66 62 62 61 61 57 54 55 57 60 59 62 60 60 61 61 60 57 56 55 58 59 60 61 62 63
49 51 52 49 52 55 52 56 54 54 51 49 51 48 52 56 60 66 69 66 62 62 61 57 56 56 58 60 59 61 61 61 62 63 64 60 58 59 59 58 58 61 62 63
53 59 57 57 57 58 59 55 53 51 49 40 49 49 50 56 60 65 67 68 64 62 61 61 61 59 57 59 59 59 61 62 62 62 64 63 60 62 60 60 60 61 61 61
50 53 57 59 53 56 56 50 41 38 38 39 49 46 52 61 63 64 66 70 69 63 61 60 58 56 56 55 57 56 59 60 61 61 62 63 62 63 64 64 64 63 63 62
43 39 53 59 55 51 50 50 42 35 35 42 47 43 53 63 64 64 65 67 67 64 62 61 60 59 57 55 56 55 56 59 61 61 61 63 63 64 64 64 64 63 64 64
43 43 56 57 60 59 49 45 55 44 42 40 46 51 60 65 64 66 65 66 67 65 64 62 61 61 59 58 57 57 58 60 61 61 61 61 62 62 63 63 63 64 64 64
50 42 53 56 59 59 55 57 44 44 35 35 42 44 50 57 63 63 65 65 67 64 63 63 62 61 61 61 60 59 61 61 61 62 62 62 61 62 62 63 62 62 64 64
53 48 47 53 51 50 50 49 49 50 44 40 38 44 55 59 63 62 63 65 66 66 64 63 63 63 62 62 60 59 60 61 62 62 62 62 61 61 61 61 61 62 64 64
49 45 40 46 54 57 55 52 51 42 40 41 41 46 60 60 63 61 63 65 66 67 67 65 64 63 62 61 61 60 60 61 61 61 61 60 61 61 60 60 61 63 63 64
50 43 37 41 49 52 48 51 53 49 46 42 38 45 61 59 60 65 62 67 67 67 66 65 64 63 63 62 61 61 60 60 62 62 60 60 60 61 61 62 63 64 63 63
51 44 37 35 38 44 41 46 49 48 41 43 44 48 56 61 60 66 66 66 67 67 67 66 64 65 65 64 62 61 61 61 62 61 61 59 60 60 61 62 63 62 63 62
50 40 42 42 46 46 45 44 46 44 46 41 47 50 55 60 62 65 68 65 66 65 65 67 66 65 65 64 63 63 62 61 62 61 61 60 60 61 62 62 62 62 63 63
45 38 41 38 46 47 42 46 48 48 48 48 50 49 60 64 64 59 62 64 64 65 66 69 67 66 64 63 63 63 62 61 62 62 61 62 62 62 61 61 61 61 62 63
39 39 36 34 42 42 36 44 47 50 52 50 45 53 60 61 61 59 61 64 63 65 66 66 68 66 66 65 64 63 64 63 61 61 62 62 63 62 61 62 62 61 61 61
38 37 36 32 34 27 45 53 52 48 51 54 54 55 57 60 63 66 66 65 64 65 66 66 68 67 69 68 66 66 65 62 61 62 62 62 62 62 63 62 61 61 59 57
42 39 33 31 31 39 46 51 49 47 48 50 51 53 55 57 59 60 62 62 64 66 66 65 67 68 69 67 66 64 63 63 61 61 61 62 62 61 57 57 55 52 50 49
41 42 34 31 28 27 43 51 54 55 40 51 52 51 51 57 48 54 60 57 59 62 63 63 64 64 65 64 62 63 63 62 61 61 61 62 60 52 51 49 48 47 47 45
33 34 31 32 29 37 46 51 54 38 43 52 53 54 53 52 55 58 58 58 58 58 58 59 59 60 61 60 61 61 60 59 61 57 54 53 53 52 50 48 46 44 42 39
35 33 32 33 30 29 50 50 45 51 53 52 56 56 54 55 55 58 58 57 58 57 56 56 55 52 55 59 60 57 55 53 54 53 51 50 50 48 47 45 42 40 38 34
35 39 38 39 40 49 51 51 55 55 53 54 55 58 59 56 57 56 58 58 58 58 56 54 52 49 51 54 56 51 50 52 50 49 47 45 44 43 43 40 38 36 36 34
42 44 40 40 47 48 50 53 50 50 48 51 53 55 57 55 56 57 57 58 58 58 55 54 51 49 48 50 52 51 50 49 47 44 43 42 40 38 38 38 37 35 34 33
43 44 42 41 47 46 52 47 46 46 49 49 50 54 55 55 56 56 55 55 55 54 53 52 50 47 46 47 47 48 48 47 43 41 39 37 36 35 32 32 34 33 33 34
43 42 39 40 39 39 42 46 46 44 44 46 44 43 45 43 45 47 43 45 46 48 49 48 45 44 42 42 43 44 46 45 41 37 37 35 34 33 33 32 30 32 31 32

GFSCGP_sfc_temp_078.txt.gz
Temp
65 60 55 60 64 66 67 63 63 68 70 65 66 68 73 79 77 75 77 76 76 76 78 72 72 71 69 67 67 63 58 59 60 60 62 58 58 58 59 63 68 69 70 72
59 54 63 65 66 63 63 60 61 67 68 64 67 67 74 77 77 79 80 78 77 76 75 69 68 69 67 65 64 61 60 60 63 66 68 62 60 60 60 61 65 64 65 64
57 62 64 62 59 58 61 59 60 60 66 68 65 63 69 75 78 78 78 79 79 76 73 69 64 66 68 64 64 62 61 60 62 64 67 62 60 59 58 59 60 63 64 66
59 66 60 58 57 61 56 65 62 60 59 54 64 53 66 71 73 76 78 78 77 78 76 72 67 67 67 67 65 63 63 61 62 64 64 64 62 57 60 59 61 62 64 64
55 58 58 55 56 63 58 66 61 62 59 58 60 55 65 68 67 73 78 80 79 78 77 73 70 70 70 70 62 63 64 62 62 63 66 65 62 63 62 59 59 61 63 66
56 65 62 62 62 63 65 60 59 59 57 46 56 57 60 66 69 73 77 79 79 78 77 76 74 72 71 71 66 65 64 63 65 63 63 63 61 58 58 58 59 60 61 61
53 54 62 63 57 61 62 57 48 44 44 44 59 56 60 69 73 75 75 78 80 79 77 75 72 71 70 69 68 65 66 64 64 64 64 65 63 59 59 61 62 60 61 62
44 42 54 60 59 54 55 56 49 40 43 50 56 51 62 72 75 76 77 79 79 78 76 75 74 73 71 68 67 63 68 68 67 65 65 66 65 65 66 68 70 67 64 65
47 48 62 62 62 62 52 49 60 51 52 46 56 60 67 73 74 76 75 78 79 79 77 76 76 74 72 70 67 65 67 71 70 68 69 69 69 67 69 69 70 69 69 71
52 46 58 60 65 65 62 65 49 51 38 39 52 54 58 63 69 73 73 75 77 78 78 77 76 74 74 72 69 67 68 70 71 70 70 70 70 69 70 70 69 70 70 71
55 50 50 56 54 55 56 54 57 58 53 44 43 53 67 66 71 72 73 75 77 77 75 76 76 76 75 74 71 68 68 70 71 71 70 69 70 70 70 69 69 70 70 71
56 52 48 51 60 63 60 56 57 49 47 51 50 53 71 70 71 72 73 75 78 78 78 78 76 75 74 73 73 70 69 70 71 71 70 69 69 69 69 69 69 70 70 71
54 49 43 47 55 60 57 59 59 58 56 49 44 53 70 71 68 71 75 78 80 79 78 78 77 75 74 74 73 72 70 69 71 71 69 68 67 68 68 68 69 70 70 71
52 46 43 41 44 50 46 50 53 52 46 49 51 55 62 65 67 70 73 77 80 80 80 79 78 76 76 74 74 72 71 70 70 70 69 67 67 68 68 69 69 69 70 69
52 44 45 47 49 50 49 49 51 49 51 45 51 53 60 65 68 70 72 74 76 78 79 80 78 79 77 75 74 74 72 70 70 70 69 69 68 69 69 68 69 69 69 69
51 46 48 45 51 52 49 53 54 54 55 54 55 54 66 69 71 70 70 70 71 74 77 79 80 81 78 76 75 74 73 71 70 69 69 70 70 69 68 69 68 69 68 69
44 44 43 39 47 49 41 49 53 56 59 57 52 59 64 64 66 69 71 72 72 71 75 77 78 77 78 80 77 75 74 73 70 69 70 70 70 69 68 69 69 67 67 67
44 43 41 39 38 30 51 59 60 57 59 62 61 62 62 64 67 70 73 72 71 72 73 76 79 77 78 79 80 78 78 74 71 70 71 71 69 69 69 69 68 67 67 66
49 45 38 35 38 45 51 55 54 52 53 58 57 60 63 65 68 68 68 68 67 68 71 72 77 76 76 77 79 80 78 76 72 71 71 71 70 69 69 68 67 67 66 64
48 47 40 36 33 31 47 56 60 60 47 60 59 59 60 63 55 62 68 68 69 71 71 69 67 70 73 75 76 75 76 74 72 71 72 73 71 69 68 67 66 59 60 56
35 36 32 35 34 42 54 59 60 43 46 59 61 61 60 58 60 64 67 68 71 72 70 67 67 65 67 69 71 70 72 72 75 74 72 71 69 66 63 60 54 50 45 42
38 35 34 36 32 31 56 56 48 54 59 59 60 60 58 61 63 63 65 67 68 69 70 67 64 61 60 63 65 68 70 70 66 64 62 62 62 55 53 49 45 43 40 37
39 46 42 45 45 55 55 56 58 56 54 56 56 59 59 59 62 64 63 65 67 69 69 65 62 56 54 56 59 60 55 59 59 57 53 50 49 46 46 44 41 39 39 36
49 54 46 45 53 56 56 58 56 56 54 57 57 56 58 56 61 62 64 64 63 66 64 65 61 55 49 51 50 52 51 53 49 45 43 42 41 40 39 39 39 38 35 34
51 52 48 49 54 54 58 54 53 53 55 54 54 53 52 51 54 54 55 55 55 57 58 58 56 50 47 46 45 46 47 48 44 42 40 38 37 35 33 33 35 35 35 36
54 50 45 45 48 46 49 53 49 50 51 51 49 49 49 48 48 48 48 48 48 49 47 45 43 42 42 41 40 40 43 43 40 37 36 35 34 34 33 31 30 32 32 32

GFSCGP_sfc_temp_081.txt.gz
Temp
66 58 59 63 66 66 66 67 68 73 77 72 71 72 77 82 83 81 82 83 83 83 86 84 81 79 78 76 73 69 64 61 61 60 59 58 57 57 58 61 62 62 66 67
60 54 66 69 68 66 64 63 65 71 75 69 70 71 77 80 81 82 83 84 84 84 84 81 79 78 75 73 72 69 67 63 62 62 62 60 59 58 59 61 63 64 66 69
54 61 67 65 64 62 63 61 63 64 72 71 68 66 71 78 81 83 85 85 86 85 83 80 76 76 74 73 71 69 64 63 64 64 62 60 59 58 57 58 62 65 65 69
58 65 64 61 61 63 55 67 66 65 63 56 72 56 70 76 78 80 81 82 84 85 85 83 77 74 74 73 72 67 64 63 64 64 61 59 58 56 59 60 62 66 67 66
52 58 59 59 61 64 59 68 67 66 62 60 63 58 65 75 73 76 80 83 85 85 85 82 79 76 76 75 72 67 65 64 66 65 62 62 60 60 60 61 62 63 64 65
55 64 63 62 66 65 66 64 64 64 61 49 59 59 61 69 73 77 81 83 84 85 85 84 82 79 77 77 72 69 67 65 65 66 64 64 62 59 57 58 59 61 62 62
47 53 62 64 58 64 62 59 48 46 46 45 63 59 62 72 76 78 78 82 84 85 83 83 81 78 77 75 71 70 69 66 65 65 65 65 65 64 59 59 59 60 60 60
39 37 56 63 58 56 58 58 49 39 43 49 64 53 64 75 80 81 82 82 84 83 84 83 82 79 77 75 72 71 70 69 65 64 65 67 67 66 67 63 62 62 61 61
42 45 58 60 61 59 53 51 62 49 53 48 55 63 71 73 74 79 79 81 82 84 85 83 83 80 78 76 73 71 72 72 70 66 64 66 68 67 67 67 67 65 65 66
52 42 57 60 64 61 57 61 46 49 39 39 52 56 59 67 68 75 77 78 81 83 84 84 84 80 80 78 75 73 73 74 73 71 68 68 68 68 69 68 68 68 70 71
54 48 46 59 56 54 54 52 52 54 52 43 42 51 70 69 70 73 77 78 80 81 81 84 84 83 81 80 77 74 72 74 75 74 72 71 70 69 69 70 70 70 70 70
58 50 45 52 63 66 62 57 56 45 45 51 50 49 73 72 70 72 76 78 81 82 82 83 83 83 81 79 77 75 72 73 75 76 74 72 73 72 70 70 71 71 70 70
53 51 41 41 53 60 57 61 61 60 57 46 39 52 73 72 71 72 72 77 81 83 83 83 82 81 80 79 78 77 74 72 75 76 74 72 72 72 72 71 72 71 71 71
53 49 48 43 48 54 52 57 61 57 48 50 51 55 63 68 69 71 72 77 78 81 83 84 83 82 81 81 80 78 76 75 74 75 75 72 72 72 72 73 72 71 71 71
53 44 48 51 53 53 52 53 56 54 55 48 53 56 63 67 69 72 74 75 75 76 79 83 84 84 83 81 80 80 79 76 75 74 74 73 73 73 72 72 72 72 72 72
54 45 48 45 52 54 51 55 56 56 56 57 57 57 69 72 73 71 72 73 73 75 78 80 82 84 84 83 81 80 79 78 76 74 74 74 74 72 71 72 71 71 71 72
47 47 46 40 50 49 43 52 54 56 60 59 52 60 67 65 67 68 69 71 73 75 77 77 79 81 84 86 83 81 80 80 77 75 74 74 74 72 71 72 72 71 70 70
45 45 46 40 43 32 52 63 62 59 62 64 63 65 67 67 69 71 72 69 68 70 72 73 76 77 81 83 85 84 84 80 77 75 75 75 75 74 74 72 71 70 70 69
52 46 41 36 39 47 54 58 57 56 58 63 62 64 66 67 69 69 71 71 70 72 74 75 77 77 76 77 80 82 82 81 78 75 75 76 76 74 74 72 70 71 70 68
51 50 42 40 34 32 50 61 65 63 49 63 62 61 62 64 57 64 70 71 71 73 75 75 75 75 75 75 75 77 79 81 79 77 76 77 77 74 72 72 71 71 69 67
39 39 35 37 36 45 55 61 63 44 46 59 62 61 61 58 62 66 70 71 74 74 74 75 73 71 68 69 70 69 72 73 78 82 79 76 76 72 73 72 72 69 60 49
39 35 34 38 32 32 61 60 50 53 59 61 61 61 59 61 64 66 69 70 72 73 74 74 70 66 61 62 63 66 69 66 66 70 76 74 74 73 68 68 58 52 46 40
37 47 43 46 46 58 60 53 59 60 58 59 59 60 60 59 60 64 66 69 70 71 70 69 69 64 56 53 52 53 54 59 61 60 55 52 49 48 48 48 45 42 41 38
53 54 47 43 54 55 53 56 59 59 58 59 60 59 59 55 58 59 62 62 62 65 63 61 56 50 47 46 46 45 47 49 47 45 43 42 41 40 40 40 40 39 37 35
54 52 52 51 53 58 59 57 54 57 58 57 58 57 55 55 54 54 57 55 55 57 55 53 46 42 40 41 40 42 44 45 42 40 38 36 35 34 32 32 33 34 34 34
56 49 47 44 49 50 54 54 53 54 53 53 53 52 54 53 51 52 52 49 47 47 45 45 40 37 36 36 36 36 40 40 38 35 34 33 32 32 32 31 29 32 32 32

GFSCGP_sfc_temp_084.txt.gz
Temp
64 52 48 55 62 63 63 60 59 66 75 72 69 70 74 79 80 78 79 80 81 81 84 83 80 78 76 74 72 67 65 65 63 61 58 57 56 56 56 57 58 58 59 60
56 49 59 62 64 63 61 56 58 66 72 71 69 68 74 78 79 80 81 81 81 82 83 81 78 76 74 72 70 66 66 64 63 62 60 59 58 58 57 57 59 59 59 60
47 53 59 56 58 57 59 56 58 59 67 72 68 63 68 75 79 81 83 83 84 83 81 79 76 74 72 70 69 65 65 63 63 62 60 59 58 57 56 57 58 58 60 62
45 54 52 49 50 55 51 64 63 61 59 53 68 50 65 72 74 78 80 80 81 82 83 80 76 74 72 70 70 68 64 63 63 62 59 57 56 54 57 58 59 59 62 63
46 48 50 47 53 56 52 63 59 58 56 57 59 54 60 71 69 75 78 80 80 82 82 80 76 75 75 72 68 67 64 63 64 62 60 58 57 59 59 58 58 59 62 63
50 56 50 52 57 61 58 55 55 56 56 46 56 54 56 63 69 75 80 81 81 82 82 83 78 77 75 72 68 65 62 62 63 62 60 59 59 58 56 58 58 59 60 61
47 49 54 57 50 58 58 50 35 35 40 41 58 55 58 69 75 78 78 80 81 82 80 80 77 75 74 70 67 64 63 61 62 62 62 61 60 60 58 58 59 59 59 59
36 36 50 55 53 50 53 52 38 33 37 44 59 51 61 74 78 80 82 81 81 81 79 80 78 75 74 71 68 66 65 63 62 63 62 63 62 62 61 61 61 60 61 61
39 40 58 56 57 54 48 46 56 44 45 38 50 61 70 74 74 76 77 79 78 79 80 80 80 76 75 72 68 66 67 66 63 63 63 63 63 62 61 61 62 61 62 63
49 37 53 57 59 58 53 57 41 42 33 32 47 53 56 64 67 72 74 76 78 81 82 81 81 76 76 74 70 67 69 68 66 64 64 64 64 64 63 63 61 61 62 63
53 47 45 50 48 46 49 44 43 45 44 34 35 46 61 64 69 69 72 75 76 78 79 80 80 79 77 76 73 69 69 69 68 64 64 64 64 65 64 64 63 62 62 62
55 48 40 44 54 61 56 51 47 36 38 44 39 42 66 66 70 71 70 74 77 80 80 80 81 80 77 76 74 71 69 70 70 69 65 63 64 65 64 64 65 64 63 64
50 46 37 42 49 57 53 53 52 48 46 37 34 44 67 69 68 71 70 72 75 77 79 80 79 79 78 77 75 73 70 69 70 71 68 65 64 64 64 65 65 65 65 65
51 46 43 34 37 43 46 52 54 51 41 40 41 45 54 60 62 68 70 71 73 75 77 78 79 78 78 78 76 75 72 70 70 71 70 67 66 66 66 66 66 66 66 65
51 40 45 48 45 45 46 44 45 50 49 43 48 50 54 60 65 70 72 73 73 74 76 77 78 77 79 77 77 77 75 72 71 70 70 69 68 68 68 67 66 67 67 67
52 41 45 43 51 51 48 49 52 48 49 54 54 54 61 65 71 70 70 71 70 71 71 72 74 75 76 76 77 77 76 74 72 70 69 71 70 69 67 67 67 66 66 66
46 44 42 37 48 47 40 49 53 55 58 57 50 58 66 65 66 66 67 66 66 67 69 70 71 72 73 73 74 76 77 76 73 71 71 71 71 69 68 67 67 66 65 65
44 43 43 36 41 29 49 60 60 56 59 61 62 57 63 65 68 68 67 65 65 67 68 69 70 70 71 72 73 74 78 76 74 73 72 72 71 70 69 68 66 65 65 64
50 45 38 34 36 44 50 57 56 54 54 61 58 58 61 65 65 60 66 66 66 67 68 69 70 70 68 67 68 69 70 74 76 74 73 73 71 70 69 67 66 66 65 64
49 49 40 38 31 29 48 59 64 63 45 58 60 57 59 61 50 55 65 68 69 71 72 71 70 67 63 62 63 65 68 69 70 72 74 74 73 71 69 68 67 66 66 65
38 39 34 35 33 42 56 60 62 43 43 57 59 57 57 54 57 62 66 68 71 71 71 69 68 60 56 55 56 60 59 56 61 65 65 68 73 71 70 68 67 65 64 54
39 34 33 36 33 30 60 58 48 51 56 57 57 57 56 58 59 61 63 64 64 65 66 64 61 55 51 49 48 49 47 51 54 57 54 53 53 56 61 61 51 49 45 40
38 45 40 42 42 56 57 54 58 58 56 56 56 57 57 55 56 58 59 60 60 60 58 57 54 51 47 45 43 41 43 47 47 45 44 43 44 44 44 47 45 42 41 37
46 53 39 44 46 47 47 53 57 58 55 56 57 56 55 53 54 53 56 53 54 54 50 50 46 42 39 40 40 38 41 44 42 39 38 37 35 35 35 37 37 37 36 35
47 46 47 46 47 45 45 49 51 54 54 53 55 54 52 51 51 51 51 47 47 46 44 43 39 37 35 36 36 37 39 41 39 37 35 34 33 32 31 30 31 32 32 34
46 41 40 37 44 42 41 48 51 50 50 50 50 49 50 48 47 48 47 42 41 39 38 36 34 33 33 33 32 34 37 38 36 34 33 32 32 31 31 29 29 31 31 31

GFSCGP_sfc_temp_087.txt.gz
Temp
55 45 40 47 52 55 56 53 52 56 66 64 63 63 67 68 66 66 65 66 69 70 73 73 72 70 68 64 62 61 60 59 60 58 57 56 55 56 56 57 59 61 62 61
48 43 52 56 57 55 52 48 46 57 64 62 60 60 63 67 66 66 69 66 69 66 72 71 69 69 67 62 62 60 60 59 61 60 59 58 57 57 57 57 57 59 60 60
43 50 56 54 53 49 46 47 47 51 59 62 58 57 62 68 69 71 71 71 72 70 70 69 68 66 64 61 60 60 59 59 61 61 60 58 57 56 55 55 56 58 60 60
44 51 49 48 47 49 42 54 56 52 45 38 55 41 57 64 66 70 73 69 68 70 71 70 67 65 63 61 61 60 59 59 61 61 58 56 55 54 56 56 58 58 59 60
43 46 44 42 47 48 45 54 52 47 44 46 48 44 53 63 62 65 70 74 68 69 70 68 67 67 65 63 60 60 60 61 61 60 59 58 56 58 57 57 56 57 58 60
47 54 49 47 50 50 52 45 47 47 44 34 43 43 47 56 62 66 70 71 72 68 70 70 70 67 65 64 60 59 59 61 61 60 59 58 57 57 54 56 55 56 59 58
44 46 51 54 45 50 46 41 33 31 31 30 49 44 49 61 68 69 70 71 72 71 67 68 66 65 64 62 59 59 59 60 61 60 59 59 59 58 57 57 56 57 58 57
34 32 47 54 47 43 45 41 34 28 28 34 51 43 52 67 71 72 72 70 69 67 68 68 68 67 64 62 60 59 59 61 61 60 59 60 61 59 59 59 59 59 59 60
36 38 52 53 51 51 42 38 48 36 40 33 40 49 63 67 69 69 68 70 67 65 68 68 68 68 65 62 59 59 59 60 62 60 60 60 60 59 59 58 59 60 60 61
44 36 49 53 54 53 45 48 38 36 29 28 40 44 48 58 61 66 65 65 67 67 68 70 69 68 67 64 61 60 60 60 60 63 62 62 61 60 59 59 59 59 59 61
49 42 41 49 43 43 43 37 40 41 40 32 31 38 52 55 62 62 63 65 67 70 69 67 70 70 68 66 63 62 61 61 60 61 62 62 62 61 59 59 60 59 59 60
48 43 36 41 52 52 46 41 42 35 35 39 36 37 56 55 61 63 63 68 68 69 69 68 70 69 67 66 63 63 63 63 61 61 62 62 63 62 61 61 60 61 59 60
46 40 32 38 45 52 45 45 46 44 41 35 32 38 54 56 59 63 63 66 67 69 69 69 67 69 68 68 65 63 64 64 63 62 61 61 62 63 61 62 63 62 61 60
49 41 38 31 35 36 38 44 46 41 35 37 37 42 50 51 55 58 63 64 65 68 68 69 67 65 68 69 67 65 64 65 65 63 61 59 61 62 62 63 63 63 63 61
46 36 41 44 47 40 38 38 41 39 42 36 44 43 49 51 54 59 65 65 64 65 66 67 67 65 65 63 64 68 66 65 66 65 63 60 61 62 62 62 62 63 63 62
47 38 40 38 47 48 41 45 44 42 42 44 45 44 53 59 61 61 61 61 61 63 64 66 66 67 66 66 65 65 66 66 66 66 65 65 63 62 62 62 62 62 62 62
41 39 37 33 43 43 36 45 45 46 48 48 39 47 59 57 56 57 56 60 60 61 62 63 63 62 61 60 62 61 63 65 66 65 66 66 64 63 63 63 63 62 61 62
39 38 39 30 35 26 45 56 56 52 53 55 51 52 54 56 58 58 58 58 60 62 62 61 59 58 57 57 57 60 64 64 63 64 66 66 66 64 64 64 63 63 62 61
44 38 29 27 30 39 46 52 52 49 47 52 50 52 55 58 57 54 59 61 61 62 61 57 56 54 53 52 53 58 55 55 56 58 58 61 65 65 64 63 63 63 62 61
44 41 33 29 27 23 42 55 59 57 38 53 53 51 52 53 41 47 58 59 59 56 55 54 52 50 48 48 51 51 50 51 52 55 55 54 52 60 64 63 63 63 63 62
33 32 30 29 27 35 51 56 59 39 37 50 52 51 51 48 49 54 58 57 56 54 52 54 49 45 44 46 48 47 47 45 49 51 49 48 47 48 50 55 61 60 60 59
33 30 28 30 26 26 53 54 43 45 51 52 50 50 49 51 52 53 52 52 50 48 47 47 44 43 43 43 42 42 40 44 47 45 43 42 41 41 44 43 46 47 48 44
30 38 32 35 34 43 47 47 49 53 49 50 48 50 50 49 49 50 47 47 46 43 42 43 41 40 39 39 39 37 39 42 43 41 39 38 37 35 36 36 37 39 41 40
38 45 38 38 41 42 43 47 51 50 48 50 50 48 48 46 47 46 44 43 40 39 38 39 38 36 34 36 36 35 38 41 40 37 35 35 33 32 32 33 33 31 33 35
39 42 40 39 40 41 42 43 47 49 49 49 49 46 43 44 44 43 39 38 37 36 36 36 34 32 32 33 33 34 36 38 37 35 35 33 31 32 30 30 30 30 31 32
41 35 34 31 36 39 38 42 47 44 44 44 41 40 40 39 39 42 37 36 35 33 32 31 30 30 30 30 31 32 35 36 35 32 32 31 31 30 30 30 29 32 31 32

GFSCGP_sfc_temp_090.txt.gz
Temp
51 43 39 45 48 49 49 47 45 48 56 52 53 54 59 64 67 66 66 64 67 69 72 68 68 67 61 61 61 60 58 59 59 57 57 56 55 56 56 57 59 62 63 62
45 39 48 51 51 50 49 44 43 49 57 55 52 51 57 61 63 66 66 62 67 67 64 66 65 63 61 60 60 59 59 60 60 57 58 58 57 56 56 57 58 61 61 63
40 47 53 50 47 47 45 42 43 45 53 54 47 45 52 60 63 66 66 69 69 67 64 65 64 62 59 59 59 59 59 59 59 59 59 57 56 55 55 55 56 59 61 61
44 49 47 44 44 46 40 49 49 49 41 34 51 35 47 54 58 64 65 63 66 66 68 66 64 61 59 59 60 59 58 58 59 59 58 56 55 53 55 56 56 58 59 60
43 44 42 41 43 48 43 51 49 47 41 39 43 37 43 55 55 61 67 67 67 64 67 66 65 63 61 59 58 58 58 57 58 60 59 57 56 57 56 56 56 56 57 58
46 50 46 45 49 48 51 47 45 46 41 31 41 40 40 49 56 62 68 67 68 67 68 67 67 65 58 59 58 57 57 57 58 59 58 58 57 56 54 55 55 55 57 56
41 42 47 50 42 46 45 39 31 29 30 29 47 42 44 57 62 66 67 68 69 63 66 66 63 60 58 57 57 57 57 56 58 59 58 58 58 56 56 55 55 55 56 56
30 31 44 49 44 40 41 39 33 26 27 32 46 39 46 60 65 68 71 69 69 65 66 65 63 61 59 58 57 57 57 56 58 59 58 59 59 55 55 57 57 57 58 58
33 35 47 50 50 48 39 35 43 34 36 32 37 45 56 62 63 66 69 66 59 64 64 64 63 62 61 58 57 58 58 58 58 59 59 59 59 57 56 57 58 58 59 60
41 33 46 47 48 48 44 44 35 35 28 27 37 40 42 50 53 62 62 61 59 60 65 64 64 63 62 60 59 58 59 58 58 61 60 60 60 60 59 58 55 56 58 60
42 39 38 45 42 40 39 37 37 39 37 30 30 37 49 48 53 55 59 64 61 63 61 64 65 65 63 61 59 58 58 59 58 59 59 60 59 60 59 56 56 56 57 57
44 39 31 37 49 52 46 39 38 34 32 36 35 37 50 51 53 57 58 63 65 62 62 65 66 65 62 59 58 58 58 58 59 60 59 60 60 60 58 57 57 57 57 57
44 39 29 34 43 48 39 43 42 40 38 34 31 35 50 51 52 55 55 62 64 64 64 61 62 63 62 60 60 59 59 59 59 60 59 59 60 60 59 58 57 58 57 57
47 39 35 29 34 38 34 37 40 39 34 34 37 41 48 46 47 51 54 58 61 63 64 63 60 58 61 62 60 60 59 60 59 59 59 58 59 60 60 60 59 58 58 57
43 33 39 41 43 41 40 39 40 37 38 35 40 42 48 49 48 51 54 60 61 61 62 62 60 59 60 59 60 61 61 60 60 59 59 59 60 61 61 60 61 60 59 58
44 33 37 35 44 43 41 42 42 40 40 41 41 42 51 52 53 50 52 57 59 60 60 59 59 58 57 57 58 59 62 60 60 60 59 60 60 60 60 60 60 60 60 60
39 36 33 30 41 40 34 42 42 45 44 42 36 44 52 51 52 51 53 57 58 59 57 56 55 54 53 53 55 55 57 58 60 61 60 61 60 59 59 60 60 59 59 60
37 35 34 28 33 25 43 52 52 45 48 49 50 50 53 51 52 54 54 54 54 53 51 50 50 49 49 51 52 52 53 54 55 56 58 58 60 60 60 60 59 59 59 59
41 35 27 26 27 36 43 50 48 44 43 50 48 51 50 50 52 49 52 51 49 49 48 47 47 46 46 46 49 51 50 51 51 51 51 52 52 54 56 59 60 60 60 59
41 38 30 26 25 21 39 51 56 53 35 51 50 48 49 51 39 43 49 49 47 48 47 44 44 44 43 43 46 47 46 46 46 47 47 48 47 49 48 49 54 61 61 60
31 29 28 27 24 32 46 48 54 37 36 49 49 48 47 44 45 48 48 46 46 44 44 44 43 40 40 42 44 42 42 41 45 46 44 44 43 44 44 45 45 46 50 58
32 29 28 27 27 24 45 49 38 42 48 48 48 47 45 47 46 45 44 42 41 39 40 41 40 39 39 39 39 39 37 41 44 42 40 39 38 39 40 40 40 40 42 41
31 35 31 33 32 42 45 43 47 48 45 45 45 47 46 44 42 42 40 38 37 37 37 39 38 37 36 36 36 34 35 39 41 39 36 34 33 33 34 34 34 37 39 37
35 40 36 37 39 40 42 44 46 46 44 45 44 44 45 42 41 39 38 36 35 34 34 36 35 33 32 33 33 33 35 38 38 36 33 32 32 31 31 32 32 31 33 33
37 39 34 37 39 39 40 41 43 44 44 42 40 38 37 38 37 36 33 33 33 32 33 33 31 30 30 31 31 33 34 36 35 34 33 31 31 31 30 30 30 30 31 31
35 32 32 30 34 36 35 39 41 39 38 38 37 34 33 34 32 32 30 30 30 29 30 29 29 29 29 30 30 31 33 33 33 31 31 30 30 29 30 29 29 32 32 33

GFSCGP_sfc_temp_093.txt.gz
Temp
48 42 38 42 45 47 47 43 41 43 54 51 48 47 52 55 56 56 58 60 63 65 68 68 65 63 62 60 60 60 59 60 59 58 56 56 56 56 56 56 57 61 63 63
42 37 45 49 48 47 45 42 41 47 53 51 46 46 52 56 54 58 60 61 64 67 60 63 63 60 60 61 62 61 60 60 60 60 59 58 57 56 56 57 56 58 62 63
38 44 50 48 44 43 41 40 41 43 48 48 45 46 51 60 59 60 61 63 66 68 60 62 62 58 60 61 61 60 60 60 60 57 55 55 55 55 54 55 56 58 61 62
42 47 46 42 41 43 36 47 47 45 40 34 44 34 49 54 54 58 61 61 65 63 63 63 62 59 59 59 60 59 61 60 60 56 55 55 54 53 55 55 56 58 61 61
41 42 41 40 42 45 41 48 45 44 37 35 38 33 44 51 50 55 59 63 65 68 63 63 62 61 61 59 58 60 60 59 59 56 56 54 53 53 53 55 55 56 58 59
44 47 46 45 47 46 49 44 43 41 38 30 38 36 39 46 50 56 62 65 68 65 63 65 65 63 59 58 59 59 58 58 59 56 55 55 56 55 52 54 54 55 56 56
40 41 45 48 41 44 43 38 25 28 28 27 43 37 41 51 56 59 62 66 69 65 62 63 61 59 56 57 58 58 58 57 58 56 55 57 57 56 52 55 55 55 54 55
31 30 41 47 43 38 37 39 30 25 25 30 43 34 43 57 61 61 65 64 67 67 63 63 63 60 57 57 58 58 57 57 58 57 55 59 59 55 54 54 57 56 56 57
32 34 45 47 47 46 38 35 43 34 35 30 35 42 52 54 54 57 59 59 59 65 64 64 63 59 58 57 56 56 57 58 59 59 56 58 58 57 54 54 57 55 56 58
40 33 43 45 47 45 41 44 34 35 27 27 34 36 39 44 47 52 54 57 57 57 59 64 62 60 59 58 57 57 57 57 59 60 58 56 56 56 55 54 55 53 54 56
42 37 36 42 39 36 38 37 37 37 35 29 29 34 48 45 47 49 51 56 58 57 57 60 62 61 60 59 57 57 57 57 58 60 60 57 56 56 55 54 54 54 54 55
44 39 30 35 45 47 42 40 39 32 32 34 35 33 49 49 50 50 51 55 58 59 57 59 61 61 58 57 57 56 57 57 58 59 60 58 57 57 56 55 54 54 54 55
44 37 28 31 38 42 39 40 39 39 37 32 30 33 50 49 49 51 51 53 57 58 58 60 60 59 57 56 55 56 56 56 57 58 59 58 56 56 57 56 54 54 54 54
46 37 33 25 31 38 34 39 40 37 32 34 35 38 45 46 46 49 51 52 56 58 57 57 56 56 57 58 58 57 57 58 57 57 57 58 56 56 56 57 56 55 55 55
41 32 35 38 40 40 39 39 41 38 37 33 37 41 45 48 47 48 50 52 55 57 56 56 54 54 55 55 57 58 58 58 58 57 57 56 57 57 57 56 56 56 56 56
41 32 33 32 39 39 36 41 42 42 41 40 39 38 51 51 50 49 49 50 52 54 52 52 51 51 51 53 52 53 55 56 59 58 57 58 57 57 57 57 57 56 56 56
37 34 31 28 36 36 31 39 42 43 45 42 36 45 51 49 49 48 49 49 50 49 48 48 47 47 48 49 50 49 51 54 56 58 59 59 58 57 58 59 58 58 58 57
35 34 32 26 31 20 39 49 46 44 43 45 46 47 47 47 47 47 49 47 45 45 45 45 45 44 44 48 50 50 51 51 51 50 51 51 52 54 58 58 58 58 58 58
39 33 26 24 25 33 39 45 43 40 42 48 46 47 47 47 46 42 45 45 44 43 43 43 43 43 43 45 48 48 48 48 48 47 47 47 47 49 50 50 53 58 58 58
36 36 29 25 23 18 36 45 50 48 34 47 47 47 47 50 38 38 43 42 41 42 43 41 42 40 39 40 43 45 44 44 43 43 43 43 43 44 43 44 46 48 50 56
28 28 26 26 26 30 43 43 49 33 33 46 47 46 44 40 42 42 43 41 41 41 40 42 40 37 36 37 40 40 40 40 43 42 40 39 39 41 39 40 41 42 44 45
29 25 24 27 26 22 42 43 36 41 43 45 44 44 42 42 42 41 40 38 37 36 38 40 38 36 36 36 37 36 36 40 41 39 35 34 34 35 36 35 35 38 39 37
27 33 30 31 30 41 43 41 43 43 40 40 42 44 44 41 39 38 36 35 35 36 36 37 36 35 34 34 34 33 34 39 39 36 33 33 33 33 33 32 32 32 34 34
36 37 33 34 39 39 40 41 42 41 38 38 39 39 41 38 37 35 34 33 32 34 33 34 33 32 31 32 33 33 34 38 36 34 32 32 31 31 31 32 32 30 30 30
33 35 31 34 36 38 37 39 38 36 39 37 35 34 34 35 32 31 30 30 30 29 31 31 30 30 29 31 31 32 33 35 34 33 32 31 31 30 30 30 30 30 31 30
33 30 28 28 32 35 34 36 38 35 33 35 34 32 31 31 29 29 27 28 27 27 28 28 28 29 29 29 29 31 32 33 32 30 30 29 29 29 29 28 27 30 30 31

GFSCGP_sfc_temp_096.txt.gz
Temp
48 41 37 43 44 45 44 41 39 41 51 49 46 46 48 52 53 50 53 54 55 58 63 63 66 62 59 59 59 59 60 60 60 59 58 57 57 57 56 56 60 62 64 63
43 38 46 47 47 45 43 40 38 44 50 48 44 46 51 52 54 57 57 59 56 57 60 62 60 58 60 59 60 59 61 61 61 60 61 58 58 56 54 54 57 58 61 63
39 44 48 46 43 41 39 37 38 40 45 45 43 44 50 56 58 58 58 59 59 59 60 60 58 58 59 58 59 60 62 61 61 61 59 56 55 55 54 54 53 55 57 61
41 46 46 43 41 42 34 44 44 42 37 30 41 30 45 51 54 57 59 57 58 59 61 61 60 58 58 59 61 61 62 61 61 59 57 55 55 52 53 53 54 57 57 60
40 41 41 39 41 44 39 45 42 41 35 33 35 31 37 48 45 50 56 59 57 59 61 59 62 61 59 59 62 62 61 61 60 57 55 54 51 55 57 52 55 57 58 59
43 46 45 44 45 45 46 42 41 39 35 26 35 34 35 41 47 51 57 59 60 61 61 62 64 61 58 61 62 61 60 60 59 57 54 53 52 53 52 54 54 57 57 59
39 40 43 47 40 43 42 36 23 26 27 26 39 35 38 48 53 54 56 58 59 60 61 59 60 59 57 59 60 60 59 58 58 57 54 53 53 53 55 54 55 54 55 56
30 29 40 45 42 37 36 36 26 23 25 29 39 31 38 50 52 55 55 56 57 56 59 59 61 61 57 59 60 60 59 58 58 57 54 54 53 53 56 52 56 56 56 56
31 32 43 45 46 44 36 33 40 33 34 29 33 39 47 50 49 51 52 53 54 55 56 59 62 62 57 59 59 60 58 59 58 57 55 54 54 53 53 52 53 57 57 57
39 32 42 43 45 44 40 43 32 34 26 23 31 32 35 43 44 48 49 51 53 56 57 59 63 61 57 58 60 59 59 59 59 58 57 55 54 54 52 53 52 53 57 57
41 37 35 42 38 35 36 36 36 36 34 29 26 30 47 45 46 46 49 52 53 55 55 58 59 59 58 59 59 58 58 59 59 59 58 54 53 53 53 52 52 52 53 53
43 36 31 35 43 45 41 38 39 32 30 33 33 31 47 47 50 51 50 53 55 55 57 57 57 57 55 56 57 57 57 58 59 59 59 57 54 53 52 51 51 52 52 53
43 35 29 32 37 42 38 41 40 37 36 30 26 31 49 48 49 51 50 53 53 55 55 56 56 55 54 55 55 56 55 56 58 59 58 57 57 53 52 52 51 51 52 52
46 36 33 26 30 36 33 37 41 37 31 32 34 35 45 45 47 49 50 51 53 52 52 52 52 54 55 54 55 55 55 56 56 58 59 57 56 56 53 53 52 52 52 52
41 32 35 36 38 38 36 36 38 37 37 32 35 36 43 47 47 49 51 51 51 48 49 49 49 50 51 52 54 57 57 57 57 56 57 57 57 57 55 53 53 53 52 53
41 32 33 32 38 37 34 37 38 39 39 39 39 39 50 51 50 49 49 50 47 46 45 46 45 47 48 49 50 52 53 54 57 57 56 56 57 57 57 56 54 53 53 53
36 34 30 28 33 33 28 34 37 39 41 39 34 42 49 49 48 48 48 47 44 43 43 43 43 43 45 48 48 48 50 52 52 52 52 53 55 57 57 57 56 55 54 53
34 33 32 26 30 18 35 44 44 41 43 44 45 46 46 43 42 43 44 43 41 41 41 40 40 41 42 45 48 48 49 48 48 47 47 47 48 50 51 53 55 57 57 56
38 33 27 24 25 31 35 40 39 37 39 46 45 45 44 44 44 39 41 41 40 40 40 39 39 39 40 41 46 46 46 45 44 43 42 43 44 44 44 45 45 48 48 54
35 35 30 25 22 16 33 41 44 44 32 43 46 44 44 44 37 35 39 39 39 40 40 38 38 38 37 38 43 43 42 42 40 39 39 40 41 40 39 40 41 43 45 45
28 28 26 25 26 29 38 40 44 30 32 42 44 45 44 36 36 36 37 36 38 39 39 41 38 35 35 37 40 38 39 39 39 37 36 36 36 37 36 38 39 39 40 39
29 26 23 28 24 21 40 40 33 38 39 40 41 41 39 38 36 34 33 35 36 35 37 37 36 34 35 35 36 35 34 39 39 36 34 34 34 35 35 34 35 35 37 35
26 32 30 31 30 39 41 39 41 41 37 36 37 37 37 34 32 32 33 33 34 34 34 35 34 34 33 34 33 32 33 38 37 35 32 32 32 33 33 31 31 32 32 32
35 37 32 32 36 37 38 38 38 37 34 34 34 35 37 33 33 31 31 30 29 31 31 33 32 30 30 32 32 32 33 37 35 33 32 32 31 30 30 32 31 30 30 29
32 33 29 32 33 35 35 36 35 34 35 33 31 30 30 30 28 29 28 27 27 27 29 29 28 28 28 30 30 31 32 34 33 32 31 30 30 29 28 28 28 29 30 30
32 28 25 26 31 32 32 34 34 32 30 30 29 28 29 29 27 28 26 26 26 25 26 26 26 26 26 27 27 28 31 32 31 30 30 29 29 29 28 26 24 28 29 31

GFSCGP_sfc_temp_099.txt.gz
Temp
53 48 44 47 51 50 50 47 46 50 57 54 54 55 59 61 63 62 63 65 68 70 75 75 74 74 72 70 68 68 66 63 63 63 61 60 61 62 62 62 66 64 64 65
47 43 50 52 51 50 49 46 45 49 54 52 52 52 58 59 61 63 64 66 66 69 72 72 73 72 69 68 68 68 67 63 65 64 65 65 62 61 63 62 61 64 66 64
43 47 52 50 47 45 46 44 44 45 50 52 50 49 55 61 62 64 65 67 69 69 70 72 71 70 69 68 67 67 68 64 65 64 64 61 59 58 58 59 62 61 62 62
45 51 47 46 46 48 41 49 48 46 44 38 48 37 51 56 57 60 63 65 65 68 69 71 73 71 67 68 68 68 68 65 65 64 62 61 62 58 58 62 63 66 64 66
44 44 44 43 46 49 45 50 47 46 43 41 42 38 47 56 55 58 60 63 65 68 68 70 72 73 72 68 66 67 67 66 64 63 63 61 59 61 63 63 63 64 64 65
46 51 50 49 48 49 50 46 45 44 42 32 40 41 44 49 52 55 58 59 61 65 68 70 73 73 69 67 66 66 64 64 63 61 61 59 59 62 62 60 62 63 62 63
42 44 48 50 43 47 46 41 32 29 28 32 43 38 44 52 54 54 54 57 60 61 62 64 69 68 66 64 64 65 64 61 61 61 59 59 63 63 59 60 63 61 58 59
35 32 43 48 46 42 42 41 34 28 29 34 42 36 46 53 55 57 59 59 60 61 61 64 66 68 65 64 64 63 63 61 62 60 58 61 63 63 63 63 64 61 59 59
36 35 46 48 48 48 39 37 43 32 36 32 39 46 51 54 54 56 57 58 58 59 61 63 65 67 64 64 64 63 62 62 61 59 58 61 63 62 63 62 62 61 60 60
42 34 44 45 50 47 45 46 34 35 26 26 37 39 44 49 50 54 55 55 55 57 59 62 64 66 64 64 64 64 62 61 60 60 58 62 62 63 63 62 61 60 59 59
45 41 37 45 42 39 40 38 37 37 34 28 30 38 50 49 52 51 54 54 53 52 56 60 61 62 63 64 64 61 60 60 59 59 58 61 62 61 61 61 61 62 60 59
45 40 34 37 45 48 45 41 41 33 30 34 32 37 51 52 54 55 55 53 53 52 53 58 58 59 61 61 60 59 59 59 59 59 59 61 61 61 60 60 60 61 61 59
46 38 31 32 40 45 41 42 42 36 36 32 29 38 53 54 54 56 54 54 51 50 50 51 55 56 57 57 57 57 58 58 59 60 59 59 59 59 60 60 60 60 61 62
47 39 36 31 34 39 36 39 42 39 31 35 35 40 47 49 50 53 52 51 47 47 47 47 48 49 51 55 56 57 57 59 59 60 60 59 60 60 60 60 60 59 60 61
44 34 38 39 40 40 39 39 40 38 39 33 40 41 47 48 50 51 51 50 46 45 44 44 44 46 47 49 50 52 56 59 59 59 59 58 60 59 59 60 60 60 59 60
44 35 38 35 40 40 37 40 41 41 41 41 42 41 53 54 53 49 49 47 44 43 43 43 43 43 45 46 47 48 49 54 58 58 57 58 58 58 57 58 60 59 59 60
39 37 34 30 36 37 32 37 41 43 45 44 39 46 51 48 42 44 43 43 41 41 40 40 41 41 42 45 46 46 46 48 47 48 49 50 52 52 54 57 57 57 59 59
37 37 35 30 33 22 39 46 46 43 45 47 47 47 45 41 39 39 40 40 39 39 38 37 38 39 41 45 46 45 44 45 43 43 43 45 47 47 48 48 48 48 52 56
42 37 31 28 28 34 39 41 40 39 40 45 43 45 43 43 42 35 35 35 36 37 37 36 37 38 40 42 45 45 44 42 39 39 40 41 43 43 43 43 43 44 47 46
38 39 35 30 24 21 35 41 46 45 35 42 42 44 43 44 34 33 34 34 34 37 38 37 37 37 37 39 43 42 41 40 37 39 39 39 41 40 40 41 41 43 43 40
32 32 29 29 28 33 38 42 45 33 32 39 40 40 40 35 34 32 33 32 33 35 37 39 38 35 35 37 39 37 39 37 38 39 38 38 39 38 38 39 40 41 39 37
32 30 28 30 27 24 41 43 35 36 37 37 37 36 34 33 33 32 31 31 31 32 36 37 36 34 35 36 37 35 35 38 38 38 37 35 36 36 37 37 37 38 38 35
30 32 30 33 31 37 39 36 37 38 34 34 35 36 35 32 30 30 30 31 31 32 33 35 34 34 34 34 34 32 34 37 37 36 34 34 33 34 34 33 33 34 34 33
34 37 32 33 33 32 35 35 36 34 32 32 33 33 33 31 30 28 28 29 29 30 30 32 32 31 30 32 32 32 34 37 35 34 33 33 32 32 34 34 33 32 32 31
32 34 28 31 32 34 33 34 33 32 33 31 30 29 30 30 28 28 27 27 28 29 30 30 29 28 28 30 30 31 34 36 34 33 33 32 32 31 30 30 30 31 30 32
33 28 27 26 30 31 30 32 32 30 28 28 30 28 29 30 28 28 26 27 26 26 27 27 28 28 28 28 28 30 32 34 34 33 32 31 31 30 30 29 27 29 30 30

GFSCGP_sfc_temp_102.txt.gz
Temp
57 50 50 56 58 57 58 57 57 62 65 60 61 63 68 73 73 71 74 75 77 80 85 88 88 88 87 85 83 81 78 77 69 68 70 68 64 65 69 67 70 72 71 70
50 48 58 61 59 55 55 54 55 60 63 60 61 61 68 70 71 73 73 75 77 79 82 83 86 87 85 84 81 80 80 78 73 75 76 75 70 67 70 68 71 72 71 68
48 56 60 57 54 51 54 52 54 53 59 62 59 58 64 70 73 73 74 75 77 77 78 81 82 84 85 83 81 80 80 79 75 78 78 74 71 67 66 67 64 68 71 67
51 58 53 52 51 53 49 59 55 54 51 48 56 49 60 65 65 68 70 72 74 76 78 79 81 83 85 84 83 81 81 80 76 77 75 70 69 67 71 70 66 65 69 67
47 50 50 50 52 56 52 56 55 54 52 51 53 48 59 62 62 63 67 68 70 72 73 76 79 82 85 86 82 80 80 80 76 76 75 72 73 75 75 71 67 68 71 71
51 56 55 53 56 56 57 53 52 52 50 41 51 50 56 60 59 62 64 67 69 71 72 74 78 81 83 86 82 78 77 77 76 73 73 72 72 72 71 70 70 70 68 71
49 49 53 55 48 54 54 49 38 34 33 40 51 49 57 59 60 61 63 67 69 71 71 73 75 78 81 82 78 76 76 76 71 68 71 72 71 72 71 71 72 71 66 66
39 35 47 52 52 48 49 50 43 34 37 44 50 44 55 61 63 65 68 68 69 68 69 71 75 77 79 79 76 75 75 74 67 66 69 71 71 73 73 71 73 72 70 69
41 40 52 54 55 56 47 42 51 39 43 40 50 54 59 61 62 64 66 66 65 65 62 65 73 77 78 78 75 73 73 71 65 64 65 65 72 72 72 71 71 69 67 66
50 37 50 50 55 53 51 54 39 42 32 32 45 48 52 55 57 62 64 64 63 62 57 57 70 74 77 77 74 69 68 67 63 64 64 67 71 72 72 70 68 68 67 65
53 48 41 49 47 46 46 44 44 46 41 35 39 45 55 56 59 59 62 64 60 57 53 52 59 70 74 74 73 66 65 64 62 62 63 68 70 71 70 70 69 68 67 64
51 47 39 43 51 56 51 48 47 40 33 40 40 45 59 60 61 62 62 60 59 57 50 49 51 59 66 70 66 63 63 62 61 61 62 67 69 70 69 69 68 67 66 65
51 45 36 36 45 51 46 48 47 40 41 37 38 47 60 62 61 61 58 54 55 53 47 47 48 50 55 60 61 63 61 59 60 60 61 64 65 68 69 69 69 68 66 66
52 46 43 39 41 47 41 45 48 45 38 41 43 48 55 58 57 59 57 53 53 51 45 45 44 47 48 50 57 58 58 59 59 60 62 62 63 67 68 68 67 67 67 65
48 40 44 45 46 46 46 45 45 44 45 39 47 47 53 57 57 57 51 48 47 47 42 41 41 43 46 47 48 50 57 58 59 59 61 61 63 64 65 64 65 66 66 66
45 38 44 40 46 45 42 45 46 46 47 47 49 49 56 48 49 44 43 43 42 42 40 39 39 41 43 45 45 46 47 48 51 51 52 59 61 60 60 63 62 62 64 65
44 42 41 35 42 42 37 44 45 47 50 49 41 49 49 36 35 34 36 38 37 38 37 36 36 39 41 43 44 43 43 45 45 46 47 48 50 52 52 57 58 61 62 64
44 43 43 36 38 28 42 51 50 47 49 47 47 42 40 37 35 33 34 34 34 35 35 34 34 36 39 43 44 42 43 43 42 41 43 44 46 46 47 48 48 49 51 49
49 45 37 34 35 39 42 44 44 43 43 43 40 42 44 42 42 33 33 33 33 34 35 35 34 33 37 40 43 43 42 41 41 39 40 41 42 42 42 42 43 45 44 41
46 47 42 37 30 27 38 47 52 50 38 43 42 38 41 41 37 33 33 32 32 34 36 36 38 37 35 37 42 41 40 40 39 38 38 41 41 41 41 42 41 41 40 38
39 39 35 35 33 37 43 49 52 36 32 39 39 36 35 31 32 32 32 31 32 33 34 37 37 37 37 39 39 38 39 38 41 40 39 40 42 41 41 42 42 40 38 36
37 36 35 36 31 27 38 48 38 35 36 36 36 38 35 34 33 32 31 30 31 32 37 39 37 36 37 38 38 36 36 38 39 40 39 39 39 41 41 41 40 41 39 36
32 34 33 32 29 34 35 33 35 36 33 34 35 35 35 33 32 30 29 30 31 32 34 38 36 36 36 36 36 34 36 39 38 37 38 37 38 39 39 39 39 39 40 39
37 43 35 33 32 32 34 35 34 35 33 35 35 36 38 35 33 30 31 31 31 32 34 37 38 37 35 35 35 34 36 39 38 37 36 34 33 35 37 37 36 35 36 35
39 41 30 32 34 35 35 34 35 34 36 36 36 35 35 36 34 33 31 31 31 32 34 35 35 36 35 36 35 36 36 38 37 36 36 35 34 33 31 30 31 31 31 33
39 31 31 29 31 33 31 34 35 33 31 32 34 35 36 37 34 34 32 32 32 32 32 32 33 33 34 35 34 35 37 37 36 34 34 34 34 35 35 33 28 29 29 30

GFSCGP_sfc_temp_105.txt.gz
Temp
60 54 51 58 61 63 62 61 62 67 73 69 67 67 72 77 78 77 77 78 80 81 87 91 91 92 93 92 90 89 85 81 79 72 77 80 75 68 70 71 75 77 78 75
57 49 60 64 64 60 59 57 58 64 70 66 65 65 71 74 76 77 77 78 79 82 85 87 90 90 89 89 88 87 87 83 80 75 79 83 74 70 75 72 75 75 77 75
53 57 63 61 59 56 55 54 55 58 65 68 63 60 65 73 76 77 79 80 81 81 82 85 87 87 88 88 87 87 86 84 81 78 81 81 77 72 71 70 72 72 74 73
56 63 60 57 56 57 48 59 58 58 56 50 66 51 66 70 71 74 75 75 77 79 81 83 84 85 86 88 89 88 87 86 84 79 80 78 76 71 72 72 71 74 72 72
53 56 56 54 55 58 53 60 58 57 54 54 57 53 61 68 66 69 71 71 73 76 77 78 80 83 86 88 89 87 87 86 85 81 81 80 76 76 77 76 72 70 73 73
57 64 61 59 59 57 60 57 55 55 53 43 54 55 59 63 65 67 69 71 72 75 76 78 81 82 84 87 86 87 85 85 85 80 80 79 74 77 77 76 71 67 69 70
51 53 61 62 53 58 56 50 39 36 39 40 59 55 60 66 67 66 67 71 73 74 74 74 75 80 82 83 85 87 84 83 83 79 79 78 76 78 76 74 73 73 68 70
42 32 51 58 54 50 51 49 41 32 37 45 57 48 59 69 69 69 72 69 71 71 71 70 71 74 81 82 83 85 85 82 83 79 78 78 78 78 78 76 76 76 72 70
42 36 51 56 59 55 47 44 56 43 48 44 52 58 63 66 64 65 66 70 69 69 67 65 65 65 74 81 83 83 82 82 82 76 76 75 76 76 77 76 76 76 75 71
51 38 49 54 58 58 53 58 42 45 35 35 50 53 48 52 58 62 63 67 66 67 64 59 59 60 65 78 83 81 80 81 76 69 68 72 74 76 76 75 74 74 71 69
51 47 44 51 49 49 49 45 47 49 46 38 42 45 58 58 61 61 64 62 63 62 61 54 53 52 58 65 80 77 77 77 67 64 64 69 71 75 75 73 73 69 67 68
57 49 38 42 57 61 57 52 51 42 39 46 43 45 62 63 65 65 60 59 61 60 58 53 48 47 50 52 69 67 68 65 66 62 63 68 70 72 72 72 71 69 65 68
55 45 35 35 48 53 49 53 52 47 47 41 39 43 65 65 64 61 54 56 56 57 55 53 46 43 46 48 54 63 63 61 61 61 63 66 67 69 71 72 69 66 67 66
53 47 42 37 43 49 44 47 51 49 41 42 45 50 55 54 51 53 48 49 50 50 49 51 44 40 42 46 48 54 60 60 60 61 62 62 63 66 70 73 67 65 65 66
51 40 42 46 50 51 48 47 48 45 47 41 47 48 49 49 44 42 43 42 43 44 43 44 44 40 39 44 44 46 49 58 60 59 60 59 62 65 69 69 66 65 65 64
49 42 47 43 49 50 46 49 49 49 49 50 52 44 52 50 47 38 36 36 37 37 38 38 40 38 37 41 41 43 44 45 49 49 49 57 61 63 63 63 63 63 63 65
40 43 42 35 46 46 39 46 49 51 48 47 38 43 52 43 36 33 34 34 34 34 35 35 34 35 36 39 41 40 41 43 43 43 45 47 50 51 51 58 61 61 61 63
45 44 45 37 40 30 45 55 54 49 45 45 42 41 38 34 33 34 34 33 33 34 34 34 32 33 36 38 40 40 41 40 40 40 41 43 45 45 46 47 48 48 47 45
52 48 41 37 38 42 43 48 47 46 36 46 43 40 40 37 40 36 34 34 33 33 35 34 34 32 34 36 39 39 39 38 38 36 37 40 41 42 42 41 41 42 40 38
50 51 46 41 34 28 36 49 54 54 32 42 44 39 39 40 36 34 34 33 33 34 35 35 35 36 33 33 38 36 35 37 35 33 36 39 40 40 40 40 38 37 36 35
42 43 38 38 38 37 35 43 51 35 29 38 41 41 40 33 32 33 33 32 33 34 40 43 40 37 38 38 35 35 36 33 35 37 37 39 40 40 40 40 38 36 34 33
38 35 36 39 36 28 34 46 34 33 35 36 36 39 37 36 35 34 31 31 33 33 36 43 41 38 38 39 38 34 34 37 36 35 37 38 38 40 41 40 40 40 39 36
35 37 34 31 29 33 35 34 35 39 37 36 37 38 38 36 34 33 33 35 36 39 40 42 43 42 40 39 38 35 36 38 38 36 36 36 35 39 39 37 37 38 39 38
40 47 35 33 33 34 36 38 39 39 37 38 39 40 41 38 39 37 38 38 38 38 38 42 41 40 38 38 38 38 39 41 39 37 35 35 31 31 32 34 33 31 34 35
42 42 32 32 34 36 36 37 37 36 39 40 42 41 40 41 40 40 38 38 38 38 39 39 38 38 38 38 36 37 38 39 39 38 37 36 35 33 31 28 29 30 29 30
42 35 33 29 33 35 33 36 38 36 36 38 40 40 41 41 40 40 38 38 38 36 37 37 37 37 36 36 34 34 36 37 36 35 35 34 35 35 34 32 28 29 29 30

GFSCGP_sfc_temp_108.txt.gz
Temp
58 50 46 51 55 57 58 57 57 62 69 66 64 66 71 75 75 75 77 78 78 80 84 85 84 82 81 81 81 81 78 76 76 75 75 75 73 71 70 72 73 71 72 71
52 46 55 58 58 56 55 54 55 62 67 66 64 65 71 73 74 76 77 76 76 78 80 83 83 82 79 79 81 81 80 77 77 76 76 76 74 70 70 68 69 71 71 70
48 53 59 56 55 54 55 53 53 54 62 66 63 59 64 71 73 76 77 79 80 78 78 81 82 81 79 78 79 81 81 78 77 75 75 75 71 68 67 68 68 70 70 70
52 59 56 54 52 56 49 61 59 56 52 46 63 46 60 67 68 72 75 75 77 78 78 79 79 78 78 78 79 80 81 80 78 74 73 72 69 65 67 68 69 69 69 69
47 50 53 52 54 59 55 61 56 55 51 50 53 49 58 67 66 70 71 72 73 74 75 75 77 78 79 77 76 77 79 82 79 75 74 73 71 70 68 70 68 67 68 68
53 61 56 58 61 61 63 55 53 52 49 38 48 50 53 59 65 67 70 71 72 72 72 72 73 75 77 77 77 75 78 80 80 75 73 73 72 71 69 69 66 66 67 67
49 47 48 63 55 60 56 48 33 30 31 33 52 49 54 62 67 68 67 67 68 68 67 67 67 68 70 70 72 76 78 80 79 76 73 74 73 72 70 69 68 65 66 66
38 33 46 59 56 52 50 47 34 29 30 37 51 44 54 65 69 70 69 69 68 66 65 64 63 63 63 66 68 61 79 80 79 77 74 74 75 73 73 72 69 67 66 65
32 36 50 56 61 57 48 41 51 38 44 38 45 51 55 63 65 66 66 66 64 63 62 59 58 58 56 60 61 61 66 80 79 77 74 73 73 72 73 70 70 69 67 67
43 33 43 52 53 57 50 54 37 37 29 28 40 42 41 48 55 61 59 59 60 60 58 56 54 52 52 57 57 57 71 78 77 76 74 73 72 73 72 70 68 68 67 66
39 36 42 49 42 41 39 40 43 45 42 32 35 35 47 48 52 55 56 57 56 55 55 54 51 49 48 52 52 53 72 75 72 71 69 69 70 70 69 69 68 67 64 64
49 41 37 42 54 56 46 43 43 37 39 43 35 33 47 51 55 55 53 53 52 52 52 52 49 46 44 47 48 50 58 63 65 67 65 65 66 67 66 66 67 64 63 64
49 39 32 34 43 50 45 50 52 47 43 41 37 34 52 52 49 48 46 47 47 46 46 47 48 44 42 43 44 46 49 60 61 62 62 63 64 64 65 66 66 64 63 63
52 44 40 31 37 47 42 47 50 49 38 42 39 37 44 43 40 41 41 42 42 42 42 42 42 43 41 42 43 43 44 49 59 60 60 60 61 63 63 65 64 62 63 62
43 35 35 38 47 50 45 46 49 45 47 41 41 37 39 39 37 36 37 38 38 38 38 38 38 39 41 40 40 41 42 44 48 53 57 59 60 62 63 63 62 61 61 62
46 36 42 32 43 44 37 48 50 47 46 43 40 36 42 41 40 36 36 35 34 34 35 35 36 36 37 39 38 40 40 41 43 44 44 48 54 58 59 61 61 60 60 61
40 42 39 34 46 44 36 44 43 43 43 41 34 37 40 34 33 31 32 33 33 34 34 33 33 34 35 38 39 38 39 41 40 40 42 43 45 47 50 55 57 56 55 59
40 42 43 34 39 26 40 51 47 41 41 44 40 38 35 32 33 33 33 32 32 33 33 33 32 33 33 36 38 39 39 39 38 38 39 41 42 42 43 45 44 43 43 43
51 46 39 35 35 38 42 43 40 39 33 41 40 41 38 36 37 32 33 33 32 33 35 34 34 33 35 35 37 38 37 37 36 35 36 38 39 39 38 37 38 38 37 36
52 51 42 39 33 27 32 39 48 48 28 38 41 39 39 39 33 30 32 32 32 34 42 41 39 38 35 35 36 36 33 34 33 33 34 36 37 37 36 34 34 36 36 35
39 39 36 36 34 32 34 41 48 32 27 36 38 38 35 31 31 32 33 32 33 34 37 44 41 39 38 38 36 34 34 32 32 34 33 34 35 36 36 35 34 36 34 33
35 32 32 34 30 25 36 41 32 32 35 36 37 38 36 35 34 34 32 33 37 37 41 44 42 39 39 39 37 35 33 34 34 34 33 32 33 34 33 33 35 36 35 33
31 36 33 30 28 34 37 34 37 39 36 36 37 39 39 37 36 36 36 38 39 39 40 42 41 39 38 38 37 34 36 38 36 33 32 31 30 31 32 31 31 33 35 34
42 46 35 32 33 34 36 38 39 40 38 40 41 41 41 39 39 38 38 38 38 39 38 40 39 37 35 36 36 35 37 39 38 36 33 32 29 28 29 30 29 28 29 30
41 42 34 31 34 36 36 36 38 38 41 42 43 41 40 41 39 39 37 37 37 37 38 37 36 34 33 33 33 34 35 36 36 35 35 34 32 29 27 27 27 28 28 29
42 35 32 29 33 34 32 37 39 37 37 40 40 40 40 40 38 39 35 36 36 35 35 34 33 32 31 30 30 31 33 34 33 32 32 31 32 32 30 27 25 29 29 30

GFSCGP_sfc_temp_111.txt.gz
Temp
51 42 38 42 45 47 47 46 46 52 60 59 57 58 63 66 69 67 67 65 70 68 73 78 77 76 76 73 70 75 74 73 73 72 71 70 67 66 66 66 67 67 67 66
44 39 48 51 50 47 46 43 43 51 59 60 57 51 58 67 67 69 67 65 64 68 71 72 70 68 71 75 73 73 73 72 74 74 74 70 65 63 64 64 66 67 66 66
38 44 53 51 47 45 45 43 45 46 54 59 50 48 55 65 69 67 67 67 67 67 68 71 73 67 68 70 70 74 74 72 73 73 69 66 64 64 62 61 62 64 66 66
43 50 50 49 46 47 40 51 52 50 49 38 48 35 53 61 63 66 68 66 63 63 66 67 65 66 67 68 71 70 74 73 73 71 71 69 66 63 63 62 62 63 64 65
37 44 45 45 47 51 45 53 52 52 40 39 42 39 45 56 58 63 67 62 61 61 62 62 62 63 64 65 64 66 68 73 73 72 71 69 64 64 61 61 62 62 63 63
41 52 51 50 51 48 55 51 45 45 42 29 42 39 40 48 57 60 61 61 61 59 59 59 60 61 60 60 61 63 64 67 71 70 69 69 66 63 63 62 63 62 63 63
39 43 51 53 43 48 50 42 27 27 24 26 45 41 43 55 62 60 57 57 57 57 55 54 54 53 53 53 56 59 60 61 64 69 69 69 69 66 63 63 62 62 61 63
28 26 44 50 44 43 45 40 27 24 24 30 46 37 44 61 59 59 58 57 55 53 53 52 51 50 49 51 53 54 53 55 58 69 69 70 70 68 66 66 64 63 63 61
29 35 47 49 49 49 43 37 45 33 38 31 38 41 51 55 58 56 55 53 51 52 51 49 49 48 48 48 50 50 52 53 60 68 69 69 67 66 68 68 65 64 63 62
37 29 40 47 51 51 46 52 35 34 27 26 38 35 38 39 45 48 46 45 48 49 48 47 46 46 47 48 49 50 52 53 64 65 70 68 66 68 67 68 65 63 63 63
42 34 35 43 42 40 39 38 39 39 35 28 29 32 41 38 43 41 44 44 43 43 43 44 44 44 44 47 47 47 48 50 59 62 66 66 66 66 63 66 67 65 63 61
41 33 32 36 44 49 42 42 42 32 30 34 33 29 42 40 41 43 42 43 43 43 42 42 43 42 43 44 44 44 45 47 50 59 59 61 62 63 63 64 63 63 60 60
42 35 30 32 37 43 38 41 43 42 37 32 29 29 41 42 39 40 38 39 40 40 41 41 40 40 41 42 42 43 43 45 48 57 58 59 59 61 62 62 62 62 61 59
46 39 33 28 32 40 37 42 44 38 32 33 32 31 35 35 35 36 36 37 37 37 38 38 37 38 39 41 41 41 42 43 45 48 51 55 59 60 62 62 61 60 61 59
41 33 34 36 40 37 34 35 36 37 41 32 32 31 33 34 34 34 36 35 35 35 35 35 35 35 37 38 40 41 41 41 43 44 45 46 49 59 59 61 60 60 60 60
43 33 33 31 38 39 34 41 41 39 37 37 35 31 35 34 35 33 33 34 32 33 34 34 34 35 35 37 38 39 39 39 41 41 41 43 44 47 53 59 59 59 59 59
38 36 32 28 37 40 31 36 36 36 38 37 30 35 35 32 30 30 31 32 31 33 33 32 32 33 35 35 37 37 38 39 39 39 40 41 41 42 43 45 52 53 56 55
39 38 38 30 36 25 32 42 40 34 35 38 37 34 33 31 31 31 31 31 31 32 34 33 32 33 34 36 36 37 37 37 37 37 38 39 40 40 40 40 38 39 40 41
46 40 34 28 28 32 35 36 33 35 30 36 35 35 34 34 36 30 32 32 32 33 35 35 35 34 35 35 37 35 35 34 34 33 35 37 38 38 38 36 35 36 35 35
46 43 36 32 27 22 30 35 41 42 24 35 37 33 32 36 27 26 32 32 32 34 37 36 36 37 35 35 37 35 33 32 32 32 33 35 35 34 34 35 34 34 34 32
32 31 28 29 27 28 31 36 42 28 25 35 35 34 33 28 29 31 32 31 32 34 39 40 36 33 35 36 36 34 34 31 32 32 32 32 32 32 33 34 34 33 33 33
29 28 25 28 26 21 34 37 29 32 35 35 35 35 34 33 33 33 32 33 34 34 37 39 35 33 33 34 34 32 32 35 34 32 31 30 30 31 31 31 32 32 32 32
27 33 27 28 26 32 35 33 35 35 33 34 36 38 38 35 35 35 33 33 34 34 35 37 34 32 32 32 32 30 32 37 36 33 30 29 29 29 30 29 29 30 31 31
37 41 30 30 31 32 34 36 37 39 38 39 38 38 40 37 36 33 33 32 32 33 32 33 31 29 28 31 31 31 32 35 35 33 31 29 28 27 28 28 28 28 28 27
36 36 32 29 32 33 34 35 36 37 38 39 39 36 36 35 34 32 31 31 31 31 31 30 28 27 26 29 28 29 32 33 32 32 32 31 29 27 26 27 27 27 28 28
35 31 29 26 33 32 31 36 38 36 35 36 35 35 35 35 33 32 30 30 30 29 29 27 26 26 25 25 25 26 29 31 30 29 30 30 30 28 27 25 25 30 29 31

GFSCGP_sfc_temp_114.txt.gz
Temp
46 38 35 41 42 43 42 39 38 44 52 50 50 52 58 61 64 64 64 63 62 65 71 75 75 78 69 69 65 73 73 73 73 71 67 66 66 65 65 66 66 65 65 66
39 34 44 48 48 44 41 38 37 45 51 50 50 47 51 56 57 60 65 63 64 62 65 69 68 69 68 67 64 71 73 72 73 72 72 69 68 64 65 64 65 66 65 65
34 39 48 45 43 41 41 38 38 39 47 51 50 43 48 56 60 64 66 67 66 68 64 62 60 59 60 60 60 65 71 72 73 74 68 63 62 62 60 62 64 64 65 65
36 42 42 42 40 45 33 46 45 43 40 32 47 30 43 51 55 61 63 62 59 58 58 58 57 56 55 56 61 63 65 69 73 73 69 66 66 64 65 65 64 64 65 64
37 41 40 35 42 48 39 44 45 44 39 40 41 33 38 49 52 57 57 56 55 54 53 52 52 53 52 53 54 58 60 62 67 68 70 68 68 69 62 63 62 64 64 64
39 48 44 42 47 48 49 43 45 39 35 28 37 35 36 44 50 54 53 52 51 50 49 49 50 51 50 50 51 53 54 56 59 62 66 66 66 64 62 62 62 62 63 61
38 39 44 49 41 47 43 35 21 25 24 26 42 36 40 50 50 49 47 47 47 47 46 45 44 45 47 47 48 51 51 51 55 56 62 66 67 64 63 63 64 62 61 61
25 25 39 48 43 39 40 38 27 22 23 28 44 33 42 48 49 49 47 45 45 44 44 44 44 43 44 46 47 48 50 51 54 53 56 66 68 64 65 63 64 63 63 63
26 30 44 48 49 45 38 33 42 32 33 28 33 39 44 45 43 43 42 42 40 40 41 41 42 42 42 44 45 47 48 50 53 56 60 64 66 65 64 64 63 63 63 63
38 28 42 44 46 49 41 46 30 30 21 18 31 31 32 36 36 38 39 39 40 40 40 40 41 42 43 44 45 47 47 47 50 53 59 64 65 66 65 64 62 62 62 62
41 36 36 38 40 36 38 38 36 36 31 22 27 26 34 32 35 33 37 38 39 40 40 40 41 42 44 44 45 45 45 45 47 50 56 62 65 65 64 64 63 62 61 61
42 33 28 35 42 47 40 39 40 27 28 34 30 26 35 32 35 35 35 36 38 39 39 39 40 41 41 42 42 42 43 43 45 48 51 59 60 60 62 63 63 62 62 62
42 34 29 31 35 42 39 42 45 38 34 32 28 27 35 36 34 34 34 35 36 37 37 37 37 37 38 40 40 41 42 42 44 46 48 51 52 59 60 60 61 61 61 61
45 37 31 26 32 35 34 40 42 38 31 29 28 28 31 33 33 33 33 34 35 35 35 36 35 36 37 38 39 40 41 42 42 44 44 45 47 50 59 58 59 60 60 60
40 31 33 36 36 36 33 35 36 35 33 29 29 28 29 31 31 31 34 34 33 33 34 34 34 34 35 36 37 39 39 40 41 41 42 42 44 46 48 58 58 60 60 60
42 32 32 31 35 35 31 33 34 35 34 32 31 27 32 32 33 31 31 32 32 33 33 34 34 34 34 35 35 37 38 38 40 39 39 41 43 43 42 45 54 59 59 59
36 34 31 27 33 34 27 30 31 32 33 34 29 31 32 29 29 28 29 31 31 33 33 32 32 32 33 35 35 35 36 37 37 38 38 39 40 40 40 41 41 42 45 51
38 36 35 28 31 21 29 36 37 32 33 34 33 31 30 29 29 30 31 30 30 33 33 32 32 32 33 36 37 36 36 35 34 34 36 37 38 38 39 39 37 36 37 37
44 38 31 28 28 28 32 32 30 31 28 34 32 33 32 32 35 29 32 32 31 33 33 31 32 33 33 34 36 36 34 33 33 31 31 33 35 35 36 34 35 35 34 34
42 40 33 30 25 19 26 32 38 38 24 34 33 31 31 34 24 25 31 32 32 34 34 32 32 32 31 32 35 34 33 32 30 30 30 31 33 32 33 33 34 34 34 33
30 30 26 28 26 26 30 35 40 26 24 34 34 33 30 27 28 30 32 30 31 33 35 34 32 29 30 33 33 31 32 32 32 32 30 30 30 31 31 33 33 33 32 33
29 26 24 27 23 20 32 34 29 31 33 34 35 34 32 32 33 32 29 30 31 30 31 32 30 29 30 31 31 30 29 34 33 32 30 29 29 30 30 30 31 31 32 30
26 29 26 27 25 31 33 32 34 35 33 33 34 37 35 32 30 30 29 29 29 29 28 30 28 28 28 29 29 28 29 33 34 30 28 27 28 28 28 28 28 28 29 29
36 38 27 28 30 31 33 34 37 36 35 34 34 35 35 31 30 29 29 29 28 27 26 27 26 25 24 26 27 27 29 32 33 31 28 28 26 27 28 29 29 28 27 27
32 35 30 29 31 32 33 34 35 34 35 35 34 33 32 31 29 29 28 27 27 26 26 25 24 24 23 24 24 25 26 30 29 30 30 29 27 26 26 27 28 28 29 29
32 29 29 26 33 31 31 35 36 32 31 32 31 30 32 30 28 27 25 24 25 24 24 22 23 22 22 22 22 23 25 28 28 28 28 28 28 25 24 24 24 29 30 31

GFSCGP_sfc_temp_117.txt.gz
Temp
43 34 29 34 38 41 40 37 35 39 46 43 43 44 49 55 54 56 61 64 65 68 70 70 72 71 65 62 64 70 69 70 69 68 65 65 65 65 65 66 66 66 67 66
35 31 41 43 43 40 39 35 34 40 46 44 41 42 50 52 55 57 56 57 61 68 69 64 60 59 55 56 58 63 69 71 70 71 70 69 68 65 65 63 64 66 65 65
32 39 45 42 39 37 37 35 36 35 42 44 40 37 44 53 56 59 59 61 61 64 58 56 55 51 51 52 53 58 64 69 70 72 70 63 62 62 61 62 64 65 65 64
35 43 40 38 37 39 31 42 43 38 36 27 40 26 40 47 51 55 57 48 49 51 52 51 50 48 48 49 51 54 57 61 67 68 67 64 65 63 65 66 67 65 65 64
34 38 38 36 39 43 35 44 43 38 34 32 35 28 35 45 46 47 45 46 45 45 46 46 46 48 48 48 48 51 53 55 59 63 67 65 63 64 61 62 64 63 63 64
38 46 41 40 44 44 45 41 40 38 33 21 33 33 34 37 41 42 43 42 43 43 43 43 46 47 46 46 47 50 51 52 55 56 58 65 65 63 60 60 61 62 62 62
35 36 41 44 36 42 40 35 23 18 18 23 38 33 37 40 41 40 39 39 40 40 41 40 40 42 44 44 45 48 50 50 52 54 55 58 65 64 64 62 62 62 62 62
24 25 36 43 38 35 36 35 26 20 23 27 40 30 34 40 41 43 42 41 41 40 40 40 41 42 42 43 44 45 47 49 51 52 54 56 59 65 65 67 65 63 62 63
28 29 42 45 45 44 37 31 41 30 34 26 34 35 37 38 37 34 37 38 38 39 40 40 41 42 43 43 43 44 46 47 48 49 51 53 57 63 63 63 63 64 63 63
37 28 41 43 45 45 43 42 29 29 24 21 28 29 27 31 32 33 33 34 37 38 38 39 40 41 42 43 43 43 45 45 46 47 50 53 57 61 64 63 62 62 62 62
40 35 34 40 38 37 37 33 35 38 34 25 23 25 33 30 33 31 32 34 35 36 37 38 39 40 41 43 42 42 43 43 44 45 47 50 52 61 64 62 62 62 61 61
41 34 28 33 41 45 40 37 37 27 28 32 27 23 34 32 33 34 32 33 35 36 37 37 38 38 39 39 41 41 41 41 43 44 46 47 49 52 62 61 61 60 60 61
42 34 27 32 37 44 38 40 38 37 35 28 25 24 34 34 32 33 32 33 33 35 36 36 37 36 37 37 38 39 40 40 42 44 44 44 45 47 50 59 61 60 60 60
43 35 31 26 30 34 33 39 39 37 28 26 26 26 29 30 30 32 32 33 33 35 35 35 34 35 36 37 37 38 39 40 41 42 42 41 43 44 45 50 59 60 60 60
40 31 32 32 33 34 33 37 35 33 32 27 26 25 27 28 29 30 32 33 33 33 33 33 33 34 35 36 36 37 37 38 39 39 39 40 41 43 43 44 46 56 59 59
41 32 32 29 34 33 28 30 32 32 31 29 30 25 30 30 31 30 30 31 31 31 32 32 33 33 33 35 35 36 36 36 37 36 36 39 40 41 41 41 41 41 43 53
35 34 31 27 33 33 25 27 29 30 32 34 27 27 30 27 28 28 29 30 31 30 30 29 30 31 32 33 35 34 35 36 35 35 35 36 38 38 38 39 39 38 37 38
35 35 34 28 31 19 27 33 34 30 31 32 30 29 28 28 28 30 30 30 31 29 28 28 28 30 31 33 35 36 35 34 33 32 33 33 34 35 37 37 36 37 37 35
41 35 30 27 25 27 29 30 29 30 27 32 31 31 30 30 32 28 32 32 30 29 29 28 28 29 30 30 33 35 33 32 31 29 30 31 32 32 33 33 34 35 35 34
39 38 33 30 24 19 26 31 35 36 23 33 32 30 29 32 23 24 30 29 29 31 30 28 28 28 27 29 32 32 32 30 28 29 29 30 30 31 30 31 31 33 33 32
30 30 26 28 24 26 29 32 36 25 24 33 32 31 28 25 26 28 27 25 26 28 29 30 28 26 27 29 30 28 30 30 29 30 29 28 29 30 30 30 31 31 31 32
27 26 24 27 23 19 32 34 28 30 32 33 33 32 31 30 28 27 25 24 26 25 26 27 26 25 25 27 27 25 26 31 33 29 27 26 26 28 29 29 30 30 30 30
25 29 26 26 24 30 32 31 33 34 30 30 32 34 31 28 27 26 25 26 26 25 25 26 25 24 25 25 25 24 26 30 31 30 27 26 26 27 27 27 27 29 29 29
33 37 27 27 29 30 32 33 34 33 30 31 32 32 31 27 27 26 25 24 24 23 23 24 23 22 22 24 25 24 26 30 29 29 29 28 25 25 28 29 29 28 28 26
30 33 26 27 30 31 32 32 32 32 32 32 32 30 28 27 25 24 23 23 22 22 22 22 21 21 20 22 22 23 25 28 29 29 29 28 26 25 24 26 27 27 28 29
32 29 26 24 30 30 30 33 33 29 28 29 28 27 28 27 24 23 21 22 21 21 21 20 21 20 19 20 21 22 23 26 27 27 27 26 26 24 24 22 22 28 29 30

GFSCGP_sfc_temp_120.txt.gz
Temp
41 33 29 33 36 39 36 34 32 37 44 41 39 39 43 49 50 50 52 52 55 58 67 63 59 57 57 59 61 66 68 68 68 68 65 66 65 66 66 65 66 65 66 65
34 30 39 41 39 37 35 32 31 38 43 42 39 39 43 47 48 51 53 55 57 57 57 56 53 53 51 50 51 55 63 67 67 69 68 68 67 67 67 66 66 66 66 65
30 36 42 40 37 34 34 32 33 33 39 42 39 35 39 47 50 52 56 54 50 49 49 50 50 49 47 47 47 51 53 63 67 69 68 63 63 62 63 63 64 65 66 65
34 40 39 36 34 36 28 39 38 36 33 25 37 23 36 43 46 42 42 41 41 41 43 45 46 47 44 45 48 49 52 55 62 67 67 66 65 65 66 66 66 66 66 66
33 35 35 34 37 39 34 41 38 36 33 33 31 23 31 41 38 39 40 40 40 40 39 39 41 44 46 45 46 48 54 55 56 58 65 64 64 64 62 63 64 65 63 64
37 42 38 37 41 41 42 37 37 36 33 23 31 28 26 33 37 37 39 39 39 40 41 42 43 44 44 46 46 48 51 53 54 56 56 60 63 61 61 61 62 63 63 63
33 35 38 42 34 38 36 30 19 17 16 22 37 28 27 33 37 37 37 37 39 40 40 40 41 42 43 44 45 47 48 49 52 53 53 55 57 60 62 62 63 62 62 62
23 25 35 41 36 32 32 31 23 19 22 24 37 25 29 35 36 37 38 38 39 38 39 39 41 41 42 43 44 45 46 47 48 50 51 54 55 57 61 65 62 63 62 63
29 27 41 43 44 41 34 29 39 30 31 27 31 30 36 37 34 33 34 35 36 36 38 38 40 41 41 42 42 43 44 45 46 47 49 51 52 55 58 62 63 63 63 63
36 27 40 43 44 42 40 43 29 28 21 20 27 25 24 29 30 31 31 32 34 36 36 38 39 39 41 42 42 43 43 43 45 46 47 49 50 52 53 59 64 62 62 61
38 34 34 39 36 33 34 32 34 35 32 23 21 23 31 29 30 29 31 32 32 34 34 36 38 39 40 41 41 41 41 41 42 44 45 46 47 49 51 59 64 62 61 61
41 34 28 34 44 43 39 36 35 25 26 29 23 20 33 31 31 32 31 32 33 33 32 33 35 38 38 39 39 39 39 39 41 43 43 44 45 46 47 49 54 61 60 60
39 33 27 29 37 40 36 38 38 36 33 27 22 21 33 32 31 32 31 32 32 33 33 33 34 35 36 37 38 38 38 39 40 41 41 42 42 43 44 46 49 56 60 60
42 34 28 22 27 33 30 36 39 36 25 24 24 23 26 28 29 30 31 31 31 31 31 32 32 33 34 36 36 37 37 38 39 39 39 39 40 41 42 44 44 46 49 59
38 31 32 31 31 31 30 31 35 31 30 25 24 23 25 27 28 29 31 30 30 30 30 31 31 32 33 34 35 36 36 36 37 38 37 37 39 41 41 42 43 43 43 45
41 30 32 28 33 30 26 28 30 31 29 27 26 23 29 30 30 29 29 30 28 28 28 29 30 31 31 32 34 34 33 34 35 35 35 37 38 39 39 39 40 41 41 41
34 32 30 25 32 34 25 26 27 29 30 31 25 26 28 26 27 27 27 29 27 27 27 26 27 28 29 30 33 33 32 34 32 32 33 34 36 36 37 37 38 38 37 39
33 32 32 28 30 19 27 33 32 29 29 30 28 27 27 27 27 28 28 27 26 26 26 26 26 26 28 31 32 35 32 31 31 30 31 32 33 33 35 35 35 35 36 35
39 32 30 25 24 26 29 29 29 29 26 30 30 29 29 30 31 25 28 27 27 27 27 26 27 26 27 28 31 33 33 29 28 27 27 29 31 31 32 31 32 33 33 33
38 34 32 28 25 19 25 31 36 34 23 31 30 28 27 31 22 21 25 25 24 26 27 26 26 25 25 25 29 30 30 30 25 25 26 27 29 29 29 30 30 32 32 32
29 30 26 27 24 25 29 32 36 24 22 31 30 27 27 24 23 24 24 21 23 25 26 27 26 23 24 25 26 26 28 27 29 29 27 26 28 28 29 30 31 31 31 32
26 25 24 27 23 20 31 33 28 30 32 32 29 29 26 25 26 25 21 21 23 22 24 25 23 23 23 24 25 25 24 29 31 29 27 26 27 29 29 29 29 29 30 30
25 28 26 25 23 30 31 30 33 31 28 29 29 29 28 26 25 24 22 22 22 22 21 24 22 22 23 23 24 23 25 29 30 30 28 27 27 26 28 28 28 29 29 28
32 35 28 27 28 29 30 31 32 31 29 30 30 29 28 25 25 23 23 22 21 20 20 21 21 20 20 22 23 23 25 30 30 28 28 28 26 25 25 27 28 27 27 27
29 31 26 27 30 30 30 30 31 31 32 30 29 28 26 25 23 22 21 21 20 20 20 21 20 20 19 21 21 21 24 28 28 28 27 27 27 25 25 25 25 25 26 27
32 30 26 19 30 29 29 30 31 29 28 29 26 25 25 24 22 21 20 20 19 19 19 18 19 19 18 19 19 20 22 27 25 26 25 25 25 23 23 21 21 27 28 28

GFSCGP_sfc_temp_123.txt.gz
Temp
47 43 39 42 44 45 43 40 37 42 48 44 43 44 48 53 54 54 56 57 59 62 67 68 63 63 67 65 70 76 73 74 73 72 70 71 69 70 70 73 74 73 72 69
41 37 45 44 43 40 40 36 36 42 47 45 44 42 48 52 52 55 55 56 58 60 64 62 57 56 56 57 59 64 70 73 72 74 74 74 73 72 71 71 72 73 72 71
37 42 45 42 41 38 39 36 36 36 43 46 43 41 45 52 55 50 48 48 47 47 48 50 52 52 53 53 54 58 62 65 71 74 74 71 71 69 67 68 68 69 72 72
39 44 41 39 37 40 34 42 40 38 37 30 43 28 42 46 47 45 42 42 42 42 46 47 48 49 50 51 53 57 61 63 65 68 71 69 69 68 70 69 68 68 71 72
40 38 38 37 39 42 37 44 41 40 36 35 38 32 40 42 37 36 38 39 40 42 43 43 45 47 49 49 51 55 59 59 59 63 65 68 68 72 74 71 68 67 68 69
40 46 43 42 43 44 45 40 41 40 36 26 36 32 34 30 31 34 36 37 38 40 41 42 44 46 46 48 50 53 54 54 56 57 57 58 66 69 67 69 68 68 67 66
37 39 43 44 38 42 41 35 28 27 25 27 40 34 29 33 33 34 33 35 37 38 39 40 40 42 43 44 45 48 49 49 52 53 53 54 55 57 61 69 68 67 66 64
30 31 40 44 42 40 37 37 30 21 25 29 40 28 28 34 35 35 33 34 35 36 38 38 40 40 41 42 43 44 46 46 49 49 50 52 54 55 57 60 63 66 65 66
31 31 44 45 46 45 37 34 42 32 34 28 32 29 34 35 32 32 32 33 32 33 35 37 39 41 42 42 42 42 44 45 47 47 50 50 52 52 53 55 58 63 67 68
35 29 42 45 47 46 43 46 32 34 22 22 28 25 24 29 29 31 31 30 32 33 33 35 37 39 41 42 42 43 43 42 44 45 46 47 48 50 51 53 56 60 64 66
38 34 37 42 39 38 37 36 38 38 34 26 24 23 30 29 30 29 30 31 31 32 32 33 34 37 40 41 41 41 41 42 42 42 44 45 45 47 48 49 50 52 63 64
41 34 29 35 45 47 43 39 40 31 30 33 28 22 32 31 31 31 30 31 31 31 32 32 32 33 35 37 39 39 39 40 41 42 42 42 44 44 45 46 47 48 50 63
39 33 28 32 38 44 38 40 39 40 36 27 26 22 32 32 31 31 29 30 30 31 31 31 32 32 33 35 37 37 38 39 42 42 41 41 41 42 42 43 45 46 47 49
42 34 30 24 27 31 30 35 40 37 31 26 24 22 26 28 28 30 30 30 29 30 30 31 30 31 31 34 35 36 36 38 40 41 39 39 40 40 40 42 42 43 45 45
39 32 32 32 31 31 28 30 32 29 30 26 24 22 24 27 27 29 30 29 30 30 29 30 30 30 31 32 36 36 36 36 38 38 38 37 38 40 41 40 40 41 41 43
41 33 33 29 33 31 26 28 29 31 29 27 26 23 29 29 29 28 27 27 27 28 28 28 29 29 30 31 34 35 35 35 36 36 35 37 38 38 39 39 40 39 39 39
35 33 33 27 32 32 26 26 28 29 30 31 25 26 28 26 26 26 27 26 26 27 27 27 27 27 28 29 33 34 33 35 34 33 33 34 36 36 36 37 37 38 38 37
35 33 33 30 31 20 28 33 32 29 30 31 29 29 28 26 26 27 27 26 25 26 27 26 25 26 27 30 32 34 35 33 32 31 30 32 33 34 35 36 35 35 36 35
39 34 31 28 26 27 29 30 29 29 26 31 31 30 30 29 31 26 27 27 25 26 27 27 27 26 27 28 32 33 32 33 30 28 28 29 31 31 32 32 32 34 35 34
38 37 32 31 26 21 26 32 36 36 24 32 31 30 30 33 28 24 25 25 24 27 28 28 28 28 26 27 31 31 29 30 29 28 28 29 31 30 30 31 31 33 33 33
31 31 27 29 26 26 30 33 37 25 26 32 31 30 31 26 26 25 26 24 24 26 27 29 29 27 27 29 30 27 28 27 30 32 30 29 30 30 31 31 32 31 32 32
28 27 26 28 25 22 33 33 29 31 33 33 32 31 28 28 27 26 24 24 25 24 26 28 27 27 27 29 29 26 26 31 32 31 31 30 29 30 31 30 31 32 31 30
28 31 29 28 26 31 31 31 35 36 34 33 32 32 31 28 26 26 25 25 24 25 26 27 27 27 27 28 27 25 27 32 32 31 30 31 31 30 30 29 29 30 30 29
33 36 29 29 29 30 31 33 34 34 33 33 33 32 32 28 27 25 25 25 24 24 25 26 26 25 25 27 27 26 28 31 33 31 30 31 31 31 31 31 30 29 29 28
34 35 30 28 30 31 31 33 33 32 33 31 31 31 29 28 26 26 24 24 24 24 24 25 24 24 24 25 25 26 27 30 31 31 30 29 31 30 30 30 27 27 27 27
35 31 28 27 32 33 31 33 34 32 30 30 29 28 29 28 26 26 24 24 24 23 24 23 23 23 23 24 24 24 26 29 28 28 27 26 28 28 28 28 29 27 27 27

GFSCGP_sfc_temp_126.txt.gz
Temp
57 54 52 54 54 53 50 48 48 54 58 53 52 54 59 64 64 63 65 66 66 67 72 75 75 77 72 73 75 82 84 83 82 81 80 80 79 80 80 82 80 79 74 73
52 50 53 52 51 49 49 46 48 54 55 53 53 53 59 63 62 59 57 58 58 58 61 64 67 66 66 67 68 71 80 85 83 83 83 84 83 82 82 82 82 81 79 74
48 52 52 50 50 47 49 46 47 46 52 55 52 50 57 61 59 51 53 54 53 49 50 56 59 62 62 62 63 66 73 81 82 79 83 83 83 82 80 80 81 81 80 79
49 52 49 48 46 48 43 52 48 46 45 41 53 37 51 52 54 50 46 45 44 44 45 47 50 54 54 55 58 63 70 71 71 72 76 78 79 76 79 79 81 80 78 79
48 48 47 45 47 49 46 49 47 47 45 45 47 43 50 48 42 41 43 42 41 39 40 42 45 48 49 50 52 55 60 65 68 68 64 68 75 80 81 77 75 72 73 76
50 55 50 51 51 50 52 47 48 48 45 36 45 43 41 32 31 35 40 40 41 38 38 40 43 45 46 47 48 51 53 55 59 63 60 61 67 75 74 73 72 71 69 69
48 48 51 52 48 50 47 43 38 34 33 36 48 43 29 35 34 34 34 35 36 39 35 37 39 41 43 43 45 48 49 50 53 55 56 57 59 61 63 63 66 69 68 69
41 39 48 53 50 46 46 45 38 27 33 37 46 35 30 35 37 36 34 35 36 36 34 34 36 39 41 42 43 45 46 47 49 51 53 54 56 57 58 58 61 61 64 68
35 40 52 52 54 51 43 39 49 38 41 35 42 31 35 41 36 33 33 33 32 32 32 33 35 36 38 40 41 43 44 44 46 48 51 52 52 55 57 59 62 60 63 64
43 32 48 50 53 54 48 50 36 39 28 27 36 29 30 32 30 32 30 30 31 32 32 32 33 34 37 40 42 43 44 44 45 45 49 50 51 52 52 54 54 52 56 58
45 38 42 49 44 40 40 41 43 43 41 31 30 27 32 29 30 30 30 30 30 31 31 31 32 33 35 38 39 41 42 43 43 45 44 45 47 49 48 48 48 48 50 54
46 37 33 40 52 52 49 44 45 35 34 40 34 27 34 32 32 32 31 31 31 31 31 31 31 32 33 35 37 38 40 41 43 44 43 43 43 44 44 44 45 46 47 49
44 36 37 40 44 49 43 42 44 42 42 33 30 27 34 35 32 32 30 30 31 32 32 31 31 31 31 33 34 35 38 39 42 43 42 41 41 41 41 42 43 43 44 45
45 41 34 31 29 36 33 38 45 40 34 32 28 25 28 30 30 31 30 30 30 30 31 32 31 31 31 32 32 33 34 38 41 42 42 41 40 41 41 42 42 41 42 41
44 33 34 36 36 36 30 31 34 32 32 30 26 26 27 28 29 29 30 30 29 31 32 32 32 32 32 32 34 35 36 38 40 40 41 42 43 42 41 41 42 42 41 41
44 35 34 31 35 35 28 30 32 32 32 30 30 26 30 30 30 29 28 28 28 29 31 31 31 31 32 32 34 38 38 37 39 38 38 41 43 45 42 41 41 41 42 41
41 37 37 31 33 34 28 28 30 32 35 35 31 29 31 29 28 27 28 28 28 29 30 28 28 28 30 32 35 35 39 40 39 37 37 38 41 42 43 44 42 41 38 40
41 39 38 35 33 25 29 34 34 32 33 36 32 31 32 30 29 30 30 28 28 29 29 29 28 28 30 34 35 36 37 38 36 34 33 35 37 38 40 40 40 40 40 39
46 40 36 32 33 30 31 35 32 31 29 35 34 33 33 32 36 30 30 29 28 30 31 32 32 30 31 33 36 34 34 34 33 30 31 32 34 35 35 35 35 37 38 36
44 44 35 36 29 26 32 36 38 40 29 36 37 36 35 34 31 29 29 29 28 32 35 35 36 36 32 33 36 35 32 32 30 31 31 32 33 33 32 33 33 35 36 34
39 39 34 35 32 31 36 37 40 28 27 37 38 38 39 34 30 28 28 27 28 32 35 37 37 35 36 37 36 33 34 31 32 35 33 33 33 32 32 33 33 32 33 33
36 34 34 34 30 27 36 36 33 34 39 40 39 39 35 33 32 30 27 29 31 32 35 37 36 35 36 37 37 34 32 38 38 35 36 34 33 34 32 32 32 33 33 32
34 39 38 32 30 35 37 36 42 43 39 39 39 39 38 34 32 31 31 32 33 35 36 36 36 35 35 36 36 34 35 40 39 38 36 36 36 35 35 32 31 32 32 33
38 42 37 34 31 34 36 39 41 41 39 41 40 39 39 36 35 33 34 34 34 35 34 36 35 34 33 35 34 34 36 39 39 37 37 38 37 37 37 37 33 29 28 28
43 42 34 30 33 36 37 39 38 38 39 38 39 38 36 36 34 34 33 33 34 34 34 34 33 32 32 33 33 34 36 37 37 37 36 35 37 37 37 36 32 30 27 27
45 39 36 34 36 38 36 39 39 37 36 36 35 35 36 36 34 34 33 33 33 32 32 32 32 31 31 32 31 32 34 35 34 33 34 32 34 34 34 34 34 28 27 27

GFSCGP_sfc_temp_129.txt.gz
Temp
65 59 58 62 61 59 57 55 55 61 66 60 58 60 64 69 69 64 64 63 62 63 64 66 67 69 71 73 72 73 74 75 82 83 75 81 81 83 82 85 84 85 83 76
58 55 62 59 58 55 55 53 54 61 63 60 59 58 64 68 62 61 59 58 58 57 56 58 59 61 64 67 69 69 71 72 76 83 83 81 84 84 84 84 83 83 82 79
56 60 58 56 56 54 56 53 53 53 58 61 58 56 61 65 62 60 58 57 55 52 48 49 51 53 55 57 59 62 66 71 74 74 82 81 86 85 83 83 84 83 83 80
57 62 55 55 53 55 49 57 54 52 51 47 59 43 55 57 56 52 51 51 48 46 46 45 44 45 47 51 52 54 58 64 70 68 64 75 78 82 84 83 85 85 83 82
55 55 54 52 54 55 51 56 53 52 50 51 54 49 49 51 43 44 44 45 43 43 44 42 41 41 45 47 47 48 53 58 62 59 61 71 72 83 83 80 78 80 81 81
58 63 57 58 57 56 57 53 54 54 52 42 52 49 44 35 33 38 40 42 41 40 41 43 42 40 41 44 44 46 49 52 58 56 56 64 71 68 65 65 69 72 71 73
55 56 59 58 53 58 54 50 41 39 40 40 55 49 34 38 39 38 36 38 39 40 38 39 38 35 37 39 42 45 46 47 51 53 53 55 59 61 62 59 60 67 69 70
48 42 54 58 55 52 52 50 41 32 37 42 53 42 33 43 42 42 38 40 39 37 37 36 37 34 35 36 40 42 45 45 47 51 51 52 55 57 58 58 59 60 62 64
44 46 59 58 59 56 48 44 54 42 45 39 44 33 42 47 41 35 35 37 33 33 34 35 36 33 34 35 37 40 43 44 45 47 49 50 51 52 53 54 55 57 59 60
49 39 53 57 58 58 53 55 40 42 31 31 42 34 35 34 32 33 31 31 32 33 32 33 34 32 34 34 36 39 42 43 45 46 47 47 47 49 50 51 50 52 55 56
50 44 47 53 50 48 47 45 44 48 44 33 33 31 35 30 32 31 31 31 31 31 31 32 33 32 33 33 35 36 39 42 44 45 45 45 45 47 48 47 47 48 49 50
50 40 36 46 56 57 52 47 45 38 38 42 37 29 37 33 35 35 33 33 32 32 32 31 32 32 32 33 33 35 38 40 42 43 43 42 44 45 45 45 44 45 45 46
50 39 38 41 47 54 47 48 47 43 39 35 31 29 37 37 35 35 32 33 32 33 32 31 32 31 31 32 33 33 35 38 40 44 45 44 44 43 43 44 44 44 44 44
48 46 40 37 35 42 37 41 44 44 34 33 30 27 30 33 33 35 33 33 32 31 32 33 31 31 31 32 32 33 34 36 38 39 43 44 45 45 44 44 44 43 44 42
47 37 37 42 42 40 33 34 35 35 35 32 29 28 28 31 31 32 33 32 32 32 32 33 32 33 34 33 34 35 37 38 38 38 38 41 44 43 43 42 42 42 41 40
48 34 35 32 39 39 30 33 33 36 35 33 33 28 34 34 35 32 31 31 31 33 33 32 31 32 33 34 35 36 37 38 38 37 38 41 42 43 42 42 42 42 41 40
43 41 38 33 36 38 32 29 32 36 40 39 34 33 35 33 32 30 31 31 31 31 32 31 30 30 33 35 36 35 38 38 37 36 38 40 41 41 40 41 42 41 40 41
47 44 43 35 37 26 30 41 41 36 36 39 35 34 36 34 33 33 33 30 30 32 33 33 30 31 35 37 38 37 37 38 36 35 35 37 38 38 39 38 38 39 39 38
52 47 39 35 35 31 32 37 37 36 32 39 37 36 36 36 37 32 34 31 30 34 37 37 37 32 37 38 40 39 36 36 35 33 34 35 35 35 36 35 35 37 37 37
50 49 41 40 33 28 38 45 47 45 31 43 41 37 36 37 29 30 32 31 31 37 40 40 41 41 37 38 40 40 36 35 33 33 34 35 35 34 33 34 34 36 37 36
40 43 36 38 36 35 44 44 45 29 30 42 44 42 40 35 32 30 31 30 31 38 40 43 42 40 41 42 41 38 39 35 37 39 37 36 36 34 34 34 35 34 35 35
42 39 35 38 35 29 44 41 34 38 43 44 43 42 37 36 35 34 31 32 36 38 41 43 41 40 41 42 41 38 37 42 42 40 40 38 38 38 35 33 34 33 33 33
38 45 40 37 32 36 41 41 46 47 44 44 43 43 41 38 36 35 36 38 40 41 42 43 41 40 40 41 41 38 39 43 43 41 39 40 39 40 39 36 33 32 32 32
44 47 41 36 34 36 39 43 45 46 44 45 45 43 43 39 39 38 39 40 41 41 40 42 40 38 37 38 38 38 40 42 42 41 39 40 39 39 40 38 36 32 28 28
48 47 38 33 36 39 41 40 41 42 44 43 43 43 41 40 40 40 39 39 40 40 40 39 38 37 36 38 37 38 38 39 39 38 39 36 38 38 38 38 34 33 28 27
50 43 37 37 40 42 41 43 44 41 40 42 40 40 42 42 40 40 39 40 39 37 38 37 36 36 36 36 34 35 36 37 35 35 35 35 35 36 36 36 36 30 29 28

GFSCGP_sfc_temp_132.txt.gz
Temp
65 57 55 60 62 60 58 55 54 60 67 62 59 59 63 68 66 59 59 57 56 56 59 59 57 56 57 57 57 59 60 62 64 66 65 67 70 72 73 79 79 78 75 73
60 52 62 63 60 58 57 53 54 60 65 61 59 57 63 63 59 56 54 52 52 51 51 53 52 51 51 51 52 53 56 58 59 62 66 65 67 71 74 78 79 78 76 73
55 61 63 59 58 55 56 54 54 53 58 60 57 55 61 58 56 55 53 51 50 46 46 47 48 47 47 47 48 50 51 53 55 58 62 61 63 68 71 73 77 77 78 74
59 65 60 57 55 58 50 59 55 53 50 44 59 41 56 57 50 49 47 47 44 44 45 45 45 43 43 44 46 47 49 50 54 56 58 57 57 59 70 73 76 77 77 75
54 58 55 53 56 59 53 58 54 52 49 48 51 47 48 52 41 41 43 43 42 42 42 42 42 42 42 43 42 44 46 49 52 53 55 54 56 62 69 74 74 76 75 75
57 66 60 59 62 59 59 54 54 54 50 39 51 50 38 34 34 38 40 41 40 40 40 41 41 41 39 40 39 40 43 48 49 50 53 53 54 59 65 63 68 73 71 73
54 56 62 62 54 59 55 49 39 38 37 37 56 49 35 38 39 39 36 38 38 38 37 37 37 36 37 36 37 38 39 45 47 47 51 52 53 57 57 59 58 58 59 62
46 43 56 60 55 54 52 51 39 31 35 39 52 39 30 40 41 41 39 39 37 36 36 35 37 35 35 35 36 36 36 41 45 46 48 50 51 52 52 53 53 53 57 58
43 48 62 60 60 58 51 45 54 42 44 37 41 34 44 44 39 34 35 35 33 33 34 34 36 35 33 34 34 34 35 35 44 45 46 48 48 48 48 50 51 51 50 54
50 39 56 58 60 59 53 57 41 43 30 30 41 33 30 33 32 33 31 31 33 33 33 33 33 33 33 33 34 34 34 33 41 43 44 46 45 46 46 46 46 47 47 47
51 44 47 55 50 48 49 46 47 46 42 31 30 29 35 31 32 30 31 32 32 32 32 32 32 33 32 33 34 33 33 33 36 43 44 44 44 43 44 44 43 44 44 44
52 41 35 46 58 60 55 49 47 34 36 41 35 28 37 33 34 35 32 33 34 33 32 31 32 32 32 32 33 33 33 35 33 42 43 43 43 44 42 43 42 43 43 43
50 38 35 41 48 54 49 49 49 45 38 33 29 27 38 38 35 34 32 33 33 34 33 31 31 31 32 32 32 32 33 33 35 40 41 42 42 42 41 42 42 42 42 42
50 45 40 31 36 44 40 42 44 42 33 35 31 26 30 33 33 33 32 33 33 32 31 32 30 31 32 32 32 32 32 33 34 36 38 38 39 41 42 42 41 41 41 40
48 37 39 43 43 41 35 36 36 35 36 33 30 30 30 31 31 32 33 33 34 34 33 33 32 32 33 32 33 34 35 35 34 33 35 36 38 40 41 41 41 41 40 40
48 38 35 31 40 40 31 32 31 38 37 35 33 27 34 35 36 32 32 32 32 33 34 32 32 33 34 35 34 34 35 35 36 35 35 37 38 39 39 39 39 39 39 38
44 41 37 32 36 39 30 30 34 38 41 39 33 32 35 33 32 30 31 31 32 33 33 31 31 32 35 37 37 35 35 36 35 34 35 36 37 37 37 38 38 37 37 37
44 43 42 35 35 25 31 43 43 38 38 39 35 35 38 34 33 33 33 31 31 34 34 34 31 32 36 38 39 38 37 36 35 34 34 35 35 35 36 36 36 36 36 36
52 45 37 33 33 31 33 40 39 37 34 41 37 37 36 36 35 31 33 32 31 36 37 37 35 32 37 37 40 39 36 36 34 33 34 34 34 33 34 33 33 35 35 34
50 50 39 38 31 28 37 45 50 48 32 43 41 37 36 37 28 28 32 32 32 39 41 40 40 40 36 37 40 39 36 35 33 33 34 36 34 33 31 32 32 33 33 32
39 41 35 36 35 33 45 47 49 30 32 44 44 41 39 35 33 31 32 31 33 38 41 43 41 39 39 41 39 36 38 34 36 38 36 36 36 33 32 32 32 31 31 31
39 37 36 39 34 26 47 43 35 39 45 46 46 45 41 34 33 33 31 30 35 40 42 43 40 38 39 40 39 36 35 41 41 38 38 36 36 37 34 30 30 29 28 27
38 44 37 34 32 39 42 41 47 48 44 44 42 41 38 35 33 33 33 39 41 42 41 42 40 38 38 38 37 35 37 41 41 38 35 36 36 36 35 32 28 27 26 25
46 49 39 36 35 38 40 45 48 48 45 46 44 42 41 36 37 37 39 40 41 41 40 41 39 37 35 37 36 36 37 39 39 37 36 36 34 35 35 33 32 26 24 23
47 48 38 33 37 39 40 42 44 45 46 44 44 43 41 40 39 40 39 40 40 39 39 39 37 35 35 35 34 35 35 36 35 34 35 33 34 33 33 30 29 28 24 25
51 42 36 36 39 41 39 42 43 40 41 42 42 41 42 42 39 40 39 39 39 37 38 36 35 35 34 33 31 32 33 33 32 31 30 31 31 31 31 30 30 31 28 28

GFSCGP_sfc_temp_135.txt.gz
Temp
54 43 40 46 50 53 51 48 45 49 57 53 49 46 52 50 49 45 45 45 43 44 48 49 49 49 48 47 46 47 47 49 50 50 50 53 53 59 62 67 75 72 73 73
48 43 54 58 57 52 50 46 44 51 58 52 47 45 46 48 46 45 43 41 41 41 43 45 46 45 45 44 44 45 45 46 47 49 50 51 53 57 60 63 67 71 73 73
46 53 61 58 53 51 49 46 46 46 50 49 46 43 42 47 47 46 44 42 41 39 39 40 42 41 41 42 43 42 42 45 46 48 51 51 53 56 58 61 66 72 74 72
51 59 58 54 52 53 44 54 52 49 43 34 47 28 41 42 40 41 40 38 36 37 38 39 39 38 38 40 41 39 41 44 47 50 48 48 48 51 55 59 63 67 74 72
48 52 52 51 53 57 50 54 50 48 41 38 41 34 36 41 35 36 36 39 37 36 36 36 37 37 40 40 38 39 40 42 44 48 48 47 48 53 55 58 61 65 69 73
51 61 56 54 59 57 57 50 48 46 40 27 41 39 29 29 33 36 38 39 37 36 36 36 39 38 37 38 38 37 38 39 42 44 47 46 48 50 53 57 61 62 64 70
50 52 57 58 50 53 50 40 26 25 24 27 47 37 29 35 36 36 34 35 35 36 34 34 34 33 35 35 36 36 37 37 39 40 46 47 48 49 54 56 58 58 58 57
37 33 51 57 52 48 46 43 29 24 25 29 44 29 29 35 37 39 37 36 35 34 34 34 34 33 33 34 34 35 35 36 37 38 43 46 46 47 51 51 50 52 55 53
38 41 55 57 58 55 46 41 49 37 37 28 30 32 36 38 36 34 34 34 32 32 32 32 32 32 32 33 34 34 34 34 35 37 42 45 45 46 46 47 47 46 47 50
46 33 51 56 58 56 50 52 34 35 26 23 26 27 24 31 31 32 30 29 31 32 29 30 31 31 32 33 34 35 34 33 34 35 40 41 44 45 45 44 42 43 43 44
49 39 40 51 47 45 43 42 42 41 34 22 15 23 34 26 32 29 30 31 30 31 29 29 30 31 32 33 33 33 33 33 33 34 36 38 41 42 43 42 41 41 41 41
48 36 31 41 53 57 52 46 44 28 31 33 26 23 35 31 34 33 32 32 32 32 30 28 30 31 32 32 32 32 32 33 32 33 35 36 41 40 40 40 40 41 40 40
47 35 30 36 43 50 47 47 45 39 34 28 23 20 36 36 32 33 31 32 32 32 30 29 29 30 31 32 32 32 32 32 32 33 33 35 37 39 38 37 38 39 39 37
48 41 35 28 31 38 37 41 40 37 23 23 24 25 29 32 32 32 31 32 31 26 30 30 30 31 32 32 32 32 32 32 32 33 34 33 34 37 38 38 37 37 38 37
43 32 33 40 41 38 33 34 34 33 32 27 23 24 30 32 31 31 32 32 31 31 29 29 31 31 33 33 33 33 34 34 34 33 33 33 36 38 37 37 37 37 36 36
45 32 30 25 36 38 23 27 27 31 36 32 31 26 34 33 33 31 31 31 29 31 30 30 30 32 33 34 34 34 33 33 34 34 33 34 35 36 37 37 36 36 35 35
39 36 31 27 32 36 30 25 30 35 37 37 26 29 32 31 31 30 29 29 29 30 30 29 28 30 32 32 34 34 35 35 34 33 33 34 34 34 34 36 35 35 34 33
40 38 37 27 31 23 29 39 38 37 36 34 31 30 32 32 29 30 30 28 29 31 31 29 26 28 31 34 35 35 35 35 34 34 33 33 33 32 33 33 32 32 33 32
45 40 30 27 27 29 32 38 36 32 31 35 32 32 31 32 30 27 31 30 27 30 32 30 30 27 32 33 35 35 34 34 33 32 32 32 32 30 30 29 30 31 29 29
45 43 34 29 27 22 31 41 46 44 26 38 37 32 31 31 25 25 29 31 29 32 35 33 34 34 31 31 34 34 32 32 31 32 32 33 32 30 28 27 28 29 28 27
35 34 29 26 26 32 42 44 48 27 25 39 38 35 34 30 28 28 30 28 28 31 36 36 34 31 32 34 33 31 31 29 33 34 33 32 32 29 28 27 27 26 25 24
34 29 27 28 27 25 43 41 32 34 38 41 40 38 36 29 29 29 28 27 29 33 36 35 32 31 32 33 33 31 30 35 35 33 32 31 30 33 29 26 25 24 23 21
32 37 30 29 29 35 38 36 41 41 37 36 35 35 33 31 30 30 29 31 35 34 32 34 32 31 31 31 31 29 31 35 34 32 30 31 31 30 30 26 24 23 23 21
41 44 29 30 33 34 37 43 45 43 38 39 38 37 36 32 33 33 34 36 35 34 32 32 31 29 27 29 30 30 31 33 32 30 30 31 29 29 27 27 24 21 19 19
39 39 31 29 34 38 40 42 42 40 41 41 40 39 36 36 36 37 36 36 35 34 34 32 29 27 27 28 27 28 29 29 29 28 28 28 28 27 27 25 23 23 17 22
43 35 27 24 33 33 34 41 41 38 38 40 40 39 40 40 38 38 35 36 35 33 32 30 29 28 27 25 24 25 27 28 26 25 24 25 24 24 25 24 25 30 27 28

GFSCGP_sfc_temp_138.txt.gz
Temp
51 42 39 43 46 48 46 43 42 42 53 47 46 39 39 43 42 39 38 38 38 39 42 44 44 43 42 42 42 42 42 42 42 43 43 45 46 49 52 55 60 62 64 66
45 39 51 54 52 49 48 43 41 46 52 48 43 35 39 41 39 38 37 36 36 37 38 40 41 40 39 39 40 40 40 41 42 43 45 48 49 50 52 54 57 62 63 66
42 48 56 53 50 48 46 43 43 44 47 45 44 34 37 41 41 40 38 37 36 35 35 36 38 38 38 37 38 40 40 41 42 45 46 48 49 49 49 52 55 60 62 63
46 55 53 51 49 50 42 51 49 47 41 34 45 27 34 37 36 36 37 34 34 36 36 35 35 35 35 36 39 40 40 40 42 42 43 44 44 45 48 51 54 56 60 63
45 48 47 47 50 53 47 52 48 46 39 35 38 32 30 38 34 33 34 35 34 37 34 33 34 35 35 36 38 39 39 40 41 42 41 41 44 47 50 52 52 54 57 62
47 55 50 50 56 54 53 48 46 42 38 27 39 37 29 27 30 32 35 36 36 36 36 36 35 35 35 36 37 38 38 38 40 40 39 42 44 46 47 48 50 53 56 61
46 47 54 55 48 50 49 41 26 25 23 27 45 36 28 32 33 33 33 34 35 35 34 32 30 31 34 34 35 36 36 35 38 37 38 42 45 45 46 48 51 54 57 54
33 31 46 53 50 46 43 41 29 25 25 29 41 30 26 34 36 38 36 35 35 31 30 29 30 31 33 34 34 34 34 35 36 36 36 40 43 45 45 46 47 48 52 50
33 37 53 54 54 54 43 36 48 35 35 27 29 29 34 35 34 34 33 34 32 26 28 28 30 30 32 33 33 33 33 34 35 36 36 38 39 40 43 44 45 45 47 47
42 31 49 52 56 54 49 52 34 34 27 23 26 26 22 30 30 32 30 29 31 30 25 28 29 30 32 32 34 34 33 32 34 36 35 37 37 38 40 41 40 42 42 43
44 37 40 48 46 44 44 39 40 40 33 25 18 23 33 30 28 26 29 31 30 30 23 25 27 29 32 32 33 32 32 32 32 34 34 35 35 36 37 38 38 39 41 40
44 34 28 40 52 53 49 43 42 31 32 31 24 23 33 29 30 31 31 32 32 31 25 26 25 28 29 31 31 32 32 32 32 32 33 33 33 33 34 34 36 38 37 38
45 34 27 34 41 49 43 44 44 38 36 30 20 23 33 33 31 31 30 32 29 28 25 23 24 25 29 29 30 32 32 32 32 33 32 32 33 33 32 33 35 36 35 34
48 39 35 25 32 38 36 40 40 37 26 22 24 25 29 30 29 30 31 32 25 24 27 26 24 26 26 29 30 31 32 33 33 33 33 32 32 33 35 34 34 34 34 34
44 34 35 37 39 37 33 35 35 34 31 26 23 25 28 29 30 31 32 28 30 29 29 28 28 27 29 30 31 33 33 33 33 32 32 32 34 34 35 34 34 33 32 32
44 33 32 31 36 37 29 28 30 32 34 30 29 26 31 32 32 31 30 30 29 29 29 29 29 29 30 32 33 33 32 33 34 33 31 32 33 33 32 33 33 32 30 29
38 35 31 29 32 33 28 28 27 31 35 34 26 30 30 30 30 28 28 29 29 29 30 29 28 28 30 30 32 32 33 34 33 32 32 32 31 31 31 32 32 30 28 28
38 37 35 28 31 23 28 36 36 35 35 33 30 29 30 31 28 30 31 29 30 30 30 30 23 26 29 31 32 33 33 33 32 32 31 31 30 29 30 29 28 29 29 26
45 38 30 27 28 30 31 36 34 32 31 34 30 30 29 29 29 27 32 31 29 30 31 30 29 24 29 30 32 33 32 32 31 30 30 30 29 28 28 27 25 26 25 25
43 41 34 29 26 21 31 39 44 42 26 35 34 29 27 28 23 26 30 31 30 31 32 31 31 31 29 29 31 31 29 29 29 29 29 30 29 27 25 25 24 25 24 23
33 32 28 27 27 30 39 42 45 26 28 36 34 31 29 27 27 29 31 30 30 32 33 33 31 28 28 30 29 27 29 26 30 32 30 30 28 25 25 25 24 23 21 21
32 30 27 27 26 23 41 40 32 34 36 37 35 34 31 28 29 30 30 29 30 32 33 32 30 28 29 29 29 27 26 31 31 30 30 29 28 29 26 20 22 22 21 19
31 35 30 30 28 34 36 35 38 39 35 34 36 37 32 29 30 30 30 31 34 34 32 32 29 28 27 28 27 25 27 31 31 29 28 28 28 27 27 24 21 21 21 20
39 41 29 30 30 32 36 39 39 37 34 35 36 34 33 31 32 32 32 33 34 33 31 31 29 26 25 25 27 27 28 30 29 28 28 27 26 26 25 25 23 20 18 18
37 37 30 28 31 34 37 37 36 36 36 35 36 35 34 34 33 34 34 34 34 33 32 31 28 26 24 25 24 24 27 28 27 27 27 26 26 25 24 24 20 23 21 21
39 33 27 26 33 32 32 36 38 35 34 36 35 34 36 37 36 37 34 34 33 31 31 29 28 26 24 23 23 24 25 27 25 25 24 23 23 22 23 22 22 29 27 30